GFSSGP_sfc_wetblb_024.txt.gz
Wetbulb
67.14 64.95 62.31 60.14 53.80 52.54 51.05 53.43 56.91 58.60 58.61 61.08 60.50 59.11 57.98 58.85 56.34 54.49 69.02 69.27 72.20 72.59 71.50 72.17 73.67 73.36 72.96 72.53 72.07 71.68 71.38 71.16 70.70 70.12 69.64 69.20 68.23 67.10 66.72 66.53 66.54 66.75 66.75 66.72 66.96 67.31 67.88 68.02 67.88
62.96 59.86 61.02 58.70 51.02 49.35 50.42 56.13 55.83 58.65 61.17 61.76 61.18 60.79 58.77 57.41 61.29 65.03 66.89 70.86 72.11 72.99 71.98 71.11 73.62 73.44 73.17 72.69 72.08 71.86 71.91 71.46 71.18 70.82 70.05 69.36 68.31 67.80 67.45 67.67 67.59 67.80 68.23 68.12 68.21 68.47 68.93 69.25 69.43
65.20 61.28 57.27 54.14 53.32 49.66 51.26 57.43 57.95 61.28 62.48 60.73 58.80 60.70 59.13 59.22 62.91 64.93 69.33 70.93 72.16 73.52 72.67 72.01 73.85 73.45 73.50 73.15 72.68 72.46 72.19 71.96 71.64 70.81 70.29 69.61 69.26 69.03 68.84 68.86 68.97 69.30 69.84 70.01 69.73 69.65 69.68 69.53 70.21
61.80 59.96 58.13 53.49 52.60 54.94 55.23 59.02 60.45 60.69 62.04 62.10 60.08 57.42 61.61 64.44 63.81 65.33 68.32 69.02 69.56 72.28 73.30 74.06 73.67 73.60 73.68 73.45 72.95 72.81 72.39 72.21 71.94 71.17 70.84 70.58 70.30 70.49 70.78 69.74 69.65 69.78 70.55 70.95 71.04 70.83 70.61 70.58 71.28
61.42 58.20 52.88 51.05 51.78 55.11 56.99 59.64 59.07 59.70 61.01 60.81 60.76 58.07 59.84 63.74 65.73 66.50 68.55 70.26 69.54 69.20 73.00 74.12 73.73 73.85 73.90 73.82 73.33 72.78 72.66 72.26 72.06 71.91 71.52 71.30 71.25 71.26 71.14 70.79 70.55 71.03 70.93 70.86 71.10 70.91 70.74 70.10 70.25
55.72 57.67 50.89 50.14 52.76 55.63 57.04 58.35 58.16 57.35 58.26 59.03 59.19 59.14 59.96 64.86 65.53 66.54 67.80 69.94 69.38 70.78 72.06 74.59 74.04 73.95 73.75 73.85 73.18 72.88 72.43 72.31 72.41 72.09 71.94 71.93 71.71 71.64 71.52 71.89 71.66 71.20 70.79 70.45 70.16 70.15 70.41 70.39 70.22
54.37 54.20 51.52 52.41 52.59 54.26 55.71 59.14 57.20 57.26 57.30 57.70 60.86 57.67 61.50 63.36 66.29 67.87 71.51 69.50 69.97 70.74 71.78 74.53 73.81 73.73 74.07 73.67 73.25 72.80 72.63 72.56 72.51 72.24 72.51 72.21 72.19 72.24 72.29 71.99 71.47 70.65 70.11 69.10 68.48 68.46 68.76 69.95 69.73
56.17 54.80 52.11 54.00 53.17 53.06 57.27 58.39 58.95 57.75 56.94 61.38 61.58 57.38 58.77 64.45 65.82 66.31 65.49 65.20 66.66 69.56 70.53 74.51 73.92 73.26 72.92 72.74 73.67 73.25 73.07 72.75 72.97 72.87 72.85 72.38 72.23 71.99 72.31 71.95 71.09 69.82 68.86 67.81 67.34 67.06 67.40 68.12 69.12
57.52 50.78 49.89 51.84 53.15 54.58 58.33 56.86 59.71 61.13 59.06 59.67 60.63 60.43 62.09 63.97 64.27 64.19 65.82 64.72 64.70 65.09 69.86 74.16 74.64 74.25 73.32 72.61 72.74 73.54 73.35 73.29 73.38 72.70 72.65 72.11 70.21 68.85 70.47 71.02 71.03 70.04 69.05 68.20 67.41 66.67 66.76 66.98 67.68
54.33 50.66 51.49 55.64 56.44 55.83 57.85 57.89 58.29 58.29 58.56 58.69 59.75 62.41 63.12 63.44 63.39 62.71 62.82 62.95 63.71 63.90 65.59 69.78 71.42 74.29 73.81 73.13 71.84 72.46 72.33 71.83 71.50 70.50 70.63 71.10 69.72 70.17 69.12 69.58 70.67 68.57 68.35 67.70 67.11 67.07 67.00 66.90 65.12
56.04 51.87 54.50 56.11 57.76 58.73 57.63 58.06 60.17 58.36 57.13 58.97 59.37 60.96 62.38 62.30 63.80 63.35 62.26 62.63 63.44 64.90 65.67 70.06 71.84 72.86 73.56 72.43 71.89 72.19 71.25 70.88 70.29 70.22 70.84 71.22 70.80 70.11 69.23 68.11 68.06 66.95 67.88 65.96 66.31 65.83 65.42 65.58 65.56
53.51 56.36 56.29 56.73 58.01 58.01 57.24 59.11 58.15 58.74 59.06 61.39 62.01 62.92 62.49 62.41 62.97 62.57 62.48 62.62 62.96 64.95 68.46 71.24 71.92 72.93 72.84 72.87 71.69 72.47 71.86 70.61 70.12 70.56 71.95 71.00 70.43 69.68 69.41 68.24 68.67 66.61 67.41 66.29 67.24 65.59 66.45 65.96 66.71
53.73 55.27 57.12 58.26 58.29 58.50 59.00 57.44 57.67 58.07 60.63 61.71 61.96 62.24 62.30 62.39 63.04 63.75 64.09 64.05 65.79 66.74 67.74 70.86 72.61 72.36 73.57 74.14 71.63 72.01 72.19 71.15 70.93 71.45 71.86 70.71 69.19 68.71 70.17 69.28 69.68 69.45 68.66 66.74 66.88 66.40 66.52 65.95 66.40
55.95 54.89 55.36 56.51 57.03 57.60 56.28 56.62 57.18 57.97 60.00 60.08 61.03 61.39 61.76 62.32 62.26 62.96 64.19 65.95 67.96 68.87 69.33 72.86 73.29 72.80 73.56 72.08 74.43 72.18 72.89 72.12 71.57 71.10 70.87 70.64 69.73 70.15 69.68 69.66 68.83 68.09 67.93 67.32 66.83 66.07 65.72 65.53 65.38
54.78 52.79 54.87 55.78 55.94 55.76 57.30 54.42 55.29 58.96 59.61 58.95 59.79 60.66 61.21 61.78 62.51 61.85 63.62 66.82 71.86 69.16 71.81 72.49 74.61 73.73 72.81 73.32 72.74 75.99 73.56 73.18 70.98 70.73 71.13 70.09 70.17 70.39 70.46 68.97 68.80 68.17 69.36 67.85 66.96 66.29 66.30 65.10 65.03
51.32 51.67 48.82 54.15 55.88 56.45 56.05 49.94 56.36 59.09 58.48 57.98 58.80 59.85 60.85 61.80 61.90 63.21 65.73 68.69 70.92 70.93 71.20 72.96 69.44 73.47 73.52 73.85 73.27 72.99 73.32 71.63 71.30 70.25 70.48 70.60 71.15 70.63 70.21 68.59 67.95 69.01 68.66 67.88 66.70 65.30 64.44 64.72 64.00
49.74 46.34 47.74 50.77 55.61 54.93 54.29 51.45 56.22 58.98 58.23 58.04 58.95 59.64 59.98 60.66 61.54 65.65 66.62 66.18 66.58 70.74 71.41 72.59 72.29 73.35 73.36 74.18 73.92 73.15 74.45 71.02 70.86 70.50 69.98 70.26 70.27 70.02 69.13 67.99 68.03 69.57 67.95 67.07 65.74 65.18 64.81 63.96 63.02
44.58 45.61 48.02 48.63 52.68 53.61 52.44 52.71 55.83 57.78 57.22 57.47 58.89 59.22 58.74 59.28 61.19 64.03 67.02 66.72 68.55 71.90 74.17 73.93 73.26 74.67 73.58 73.73 73.47 72.59 71.57 70.50 70.05 69.72 69.68 71.02 69.87 69.80 69.29 68.24 68.69 68.46 66.93 65.96 65.40 64.83 64.87 63.66 62.77
47.75 47.73 46.79 50.41 53.29 52.19 52.18 52.62 54.28 56.78 56.75 57.11 57.98 58.03 58.85 60.00 63.43 64.96 65.70 66.94 69.44 70.22 72.48 73.93 74.07 75.31 73.12 72.09 70.93 70.17 68.18 68.39 68.65 69.45 70.09 69.96 70.05 69.58 69.56 68.04 68.45 67.47 66.56 65.56 64.94 64.58 63.40 62.74 63.17
45.42 45.38 46.19 50.27 52.04 51.84 51.45 51.51 54.61 56.34 56.79 57.52 58.04 58.18 59.01 59.89 61.14 63.11 65.47 67.12 69.71 69.95 71.15 72.80 72.77 72.86 73.00 72.36 71.22 70.14 68.71 67.48 67.75 68.83 69.75 69.99 69.29 69.42 66.81 68.03 66.88 67.24 65.86 65.22 63.62 63.56 62.61 62.09 63.56
45.10 44.71 46.19 46.28 49.69 51.26 50.81 49.27 52.09 54.94 56.50 57.47 57.74 58.53 59.12 59.17 59.18 60.88 63.06 68.31 68.42 68.86 69.95 70.31 71.25 72.76 72.50 72.72 71.25 72.05 69.07 70.04 67.96 69.08 68.28 68.84 69.00 68.80 68.45 67.97 67.08 66.56 65.91 64.64 63.75 63.43 62.36 60.71 63.17
43.08 47.54 47.16 46.80 46.14 43.40 50.18 42.30 50.44 53.17 53.76 55.22 56.45 57.47 58.65 59.22 60.48 61.20 63.16 66.79 67.45 67.76 68.98 69.81 71.20 71.64 72.04 71.41 69.91 69.00 66.42 65.90 67.37 66.94 67.64 67.73 69.05 68.08 67.85 67.48 66.37 66.26 65.98 65.18 65.07 64.74 63.41 62.43 60.11
44.59 48.10 47.08 46.94 45.83 46.44 46.28 44.36 47.61 51.93 50.40 52.68 55.54 57.41 58.60 59.92 60.78 61.52 63.26 66.95 67.20 67.73 68.18 69.47 70.43 70.26 70.91 70.33 69.62 68.72 68.53 68.02 68.93 68.11 68.45 68.62 68.58 68.09 67.68 67.39 66.98 66.41 65.98 65.56 65.05 64.43 63.68 63.35 61.76
48.82 46.59 46.67 47.18 46.23 40.85 45.43 44.86 44.83 48.33 51.02 52.94 56.00 57.62 58.82 59.50 60.23 61.96 66.16 66.72 66.60 67.29 67.83 68.90 68.70 69.09 69.05 70.41 70.31 69.07 68.49 68.68 67.71 67.12 67.13 67.24 68.09 68.11 67.55 66.91 66.44 66.33 66.28 65.68 65.20 64.85 64.17 63.64 63.07
46.31 45.70 38.88 37.59 38.47 37.91 46.45 44.28 46.38 51.76 53.17 54.60 55.86 57.30 58.93 60.23 60.30 64.55 64.72 65.01 65.32 65.96 67.14 67.72 67.67 67.20 68.37 69.05 68.55 69.59 69.09 68.98 68.10 68.05 66.74 66.93 66.36 66.22 66.89 66.90 65.90 66.07 66.50 66.04 65.19 64.83 64.23 64.43 62.84
44.20 45.17 39.83 32.90 35.66 39.54 45.96 42.00 46.35 53.58 55.34 56.79 55.97 58.23 59.01 61.24 63.71 64.31 64.74 64.56 65.01 65.96 66.45 66.52 67.13 66.78 67.50 67.67 67.78 69.37 69.72 67.61 68.46 68.32 67.11 66.08 65.99 66.40 67.16 66.99 66.56 66.58 66.39 66.24 66.04 65.43 65.09 64.80 63.26
44.07 41.36 47.10 42.76 44.13 40.59 44.26 47.76 51.58 53.70 54.61 55.71 55.03 57.81 60.58 62.29 63.71 63.94 64.38 64.48 65.02 65.48 66.15 66.66 66.65 66.50 66.66 67.21 68.42 68.77 69.04 67.84 67.18 68.50 68.21 66.75 67.35 65.89 66.74 66.54 66.41 66.45 66.01 65.71 64.95 64.58 64.76 65.03 63.97
45.20 47.68 41.14 43.76 36.13 36.32 42.39 45.00 46.50 51.81 53.48 55.08 54.94 57.60 61.21 63.10 63.14 63.52 63.71 64.63 65.25 66.05 66.81 67.10 66.92 66.24 66.67 66.66 67.77 67.52 65.53 68.16 67.39 66.51 66.25 66.48 66.78 64.73 66.29 66.23 66.70 65.61 65.79 65.91 64.76 65.05 64.85 64.80 64.09
43.04 42.75 44.47 46.03 43.91 39.00 38.30 43.17 55.75 54.34 54.93 55.51 57.02 57.67 61.48 62.06 62.48 62.93 63.94 65.04 65.62 65.98 66.12 66.46 66.27 65.79 65.48 66.96 67.67 67.27 66.98 67.54 65.11 65.84 64.75 66.32 66.88 64.11 65.17 65.57 65.64 65.61 64.87 65.30 64.91 64.43 64.21 62.34 61.23
45.77 44.01 45.15 41.48 40.45 44.12 43.88 44.45 56.13 57.03 56.11 57.67 57.71 59.61 62.00 62.48 62.54 63.34 64.02 64.36 64.70 65.26 65.51 65.77 65.52 64.41 65.64 66.15 66.50 66.67 67.40 67.10 66.42 65.87 65.12 66.21 65.68 65.71 64.32 64.05 65.00 65.25 64.79 64.13 64.37 62.98 63.90 62.21 60.32

GFSSGP_sfc_wetblb_027.txt.gz
Wetbulb
65.63 65.19 61.33 57.51 47.86 47.74 44.11 48.91 53.84 56.16 57.07 57.12 58.71 57.30 54.81 55.78 55.45 52.49 63.48 69.21 69.70 69.68 71.19 72.90 73.99 73.56 73.11 72.64 72.22 71.80 71.33 71.03 70.62 70.28 69.43 68.86 68.46 67.46 67.27 67.22 66.87 66.87 66.68 66.65 66.56 66.67 67.11 67.40 67.62
62.50 60.21 56.16 54.14 45.53 42.36 45.26 51.52 53.68 57.11 59.90 60.67 59.25 57.80 55.32 57.53 63.01 63.21 64.66 70.44 70.27 69.54 70.45 71.17 73.87 73.41 73.01 72.74 72.25 71.86 71.51 71.28 71.13 70.62 69.35 68.72 68.72 68.23 67.64 67.43 67.32 67.54 67.86 67.78 67.91 68.08 68.48 68.58 68.98
64.26 62.03 49.89 48.87 47.50 44.57 45.52 52.97 55.66 59.85 62.20 61.38 57.49 58.64 57.92 58.17 64.00 64.31 66.76 71.19 69.95 68.80 69.67 70.06 73.82 73.42 73.07 72.79 72.30 72.01 71.66 71.56 71.41 70.57 69.89 69.12 68.85 68.98 69.35 68.41 68.44 68.87 69.36 69.58 69.67 69.62 69.51 69.36 69.54
58.61 57.09 52.68 47.24 47.12 51.94 52.21 54.72 59.24 59.49 60.94 61.17 60.22 56.85 59.70 64.31 62.86 64.17 70.72 71.49 69.88 69.18 69.05 72.11 73.67 73.44 73.04 72.89 72.42 72.21 72.18 71.88 71.56 71.17 70.39 70.01 69.86 69.91 69.97 69.41 69.39 69.49 69.72 70.30 70.79 70.96 70.64 70.26 70.31
57.55 53.15 44.79 45.60 48.99 53.60 55.07 55.92 59.01 58.57 59.92 60.30 59.81 58.24 57.59 62.05 64.59 65.57 66.12 71.73 70.20 69.47 68.98 72.02 73.64 73.72 73.59 73.24 72.85 72.40 72.40 72.13 72.21 72.05 71.22 71.07 71.41 71.41 70.75 70.06 69.98 70.38 70.68 70.89 70.55 70.89 70.81 70.48 70.42
50.89 51.68 43.87 43.27 48.76 53.49 55.57 56.59 55.49 55.53 55.84 56.40 57.86 57.94 57.42 62.69 63.17 64.08 66.04 64.91 69.98 70.04 69.22 71.21 73.27 73.66 73.49 73.42 73.12 72.70 72.25 72.25 72.38 72.23 72.01 71.91 71.96 71.74 71.17 70.74 70.86 71.16 71.24 70.66 70.46 70.09 70.03 70.56 70.11
48.78 46.05 44.63 46.62 48.74 51.80 54.67 56.76 54.28 53.78 54.39 56.17 58.19 55.77 58.22 61.37 62.99 63.68 63.66 64.73 64.71 70.25 70.30 70.81 71.36 72.35 73.79 73.46 72.94 72.69 72.27 72.20 72.08 72.13 72.00 72.05 72.20 72.03 71.98 72.05 71.74 71.69 71.15 70.40 69.66 68.87 68.61 69.21 69.53
52.65 47.75 44.44 47.18 48.58 50.42 56.64 56.84 54.31 55.83 55.70 60.23 59.84 55.22 54.97 60.90 63.71 63.25 62.13 61.52 62.94 69.23 71.21 70.40 70.53 70.80 70.68 71.53 73.46 72.86 72.57 72.42 72.24 72.20 72.22 72.29 72.15 72.34 72.38 71.87 72.10 71.37 70.53 69.69 68.75 68.16 67.74 67.84 68.99
57.02 43.69 42.22 46.55 48.93 51.62 56.40 55.04 58.24 59.73 57.36 58.55 59.93 59.19 59.88 61.36 60.71 59.24 58.07 59.12 58.98 65.20 70.62 70.44 70.26 70.25 69.96 70.13 71.83 72.88 73.09 72.74 72.58 72.22 72.39 71.46 69.08 69.01 69.34 70.96 71.80 71.19 70.28 69.72 68.64 68.16 67.53 66.92 67.19
55.86 44.68 45.69 50.70 52.77 52.80 54.58 55.27 56.74 57.07 57.47 56.87 58.31 61.72 62.11 62.17 59.67 58.59 57.04 55.92 56.17 58.44 69.49 70.52 70.38 70.13 69.88 70.83 70.43 70.69 70.32 70.09 70.47 70.26 69.67 69.24 67.87 65.41 67.14 69.23 72.44 71.76 71.29 70.70 69.75 68.43 67.45 66.85 63.41
54.35 49.28 51.30 52.08 53.48 54.84 54.72 55.14 57.53 56.43 54.73 57.44 57.54 59.52 61.02 60.79 58.92 58.69 58.05 56.81 56.77 58.21 61.41 70.52 70.53 70.60 70.11 70.16 69.91 70.25 69.76 69.63 69.97 68.42 67.24 68.14 67.93 66.24 67.06 64.81 68.55 66.66 69.51 65.05 66.74 65.16 64.59 63.48 62.98
50.36 53.83 54.39 53.90 54.81 54.48 53.89 56.15 55.45 56.57 56.02 59.28 58.94 59.54 60.15 59.38 58.36 58.20 57.73 58.10 58.05 58.20 59.21 67.66 71.43 71.22 70.62 70.61 69.23 69.78 69.02 69.02 68.76 68.57 66.82 67.91 67.26 65.92 64.85 64.32 64.88 64.07 64.02 63.48 62.72 63.25 63.38 62.90 64.15
50.70 51.52 53.74 55.95 55.66 55.33 56.18 54.79 55.12 55.85 58.67 59.80 59.30 58.64 58.21 58.12 58.71 59.18 59.17 59.29 58.84 57.17 59.09 62.56 68.77 71.26 70.77 69.26 69.48 69.30 68.71 68.43 68.15 67.59 67.53 67.78 66.72 64.37 63.83 63.57 64.03 63.78 63.85 63.30 62.89 64.05 63.89 63.33 63.25
50.44 53.17 52.89 53.95 54.43 55.57 54.32 54.72 55.33 56.37 57.98 57.57 57.70 56.70 57.06 57.86 58.46 58.43 58.86 58.81 58.70 59.01 59.45 62.73 68.18 70.02 70.37 69.48 69.06 69.42 69.36 68.57 67.82 67.87 68.08 68.35 66.23 64.38 64.52 64.99 64.70 63.47 63.07 62.98 62.98 62.28 61.89 61.76 62.18
49.76 47.13 49.97 52.28 53.54 52.33 54.12 51.04 51.94 55.73 57.07 56.45 56.93 57.53 57.92 57.90 58.68 58.28 58.17 58.35 59.68 60.82 60.41 63.41 66.74 68.67 69.40 69.10 68.17 69.10 69.74 68.93 68.05 67.80 68.71 67.84 65.86 64.93 65.36 64.02 63.86 63.37 63.32 63.29 62.89 62.64 62.55 62.01 62.00
46.23 46.01 42.59 48.67 51.29 52.76 52.23 46.49 53.01 55.73 55.91 55.47 56.82 57.53 57.69 56.89 57.98 58.79 58.85 57.99 61.29 60.48 61.53 63.56 69.92 69.02 69.18 68.49 68.75 69.55 69.33 67.95 67.43 66.49 67.67 67.22 65.99 65.87 65.45 63.90 63.52 63.94 64.29 62.98 62.44 62.08 61.55 61.72 61.39
44.15 39.39 41.90 45.44 51.28 51.11 50.54 48.06 53.58 55.98 55.35 54.91 55.87 56.64 57.07 57.19 57.03 57.70 59.44 59.13 58.90 59.26 61.32 63.90 67.27 69.21 69.38 69.33 68.59 69.01 68.50 66.35 65.48 65.20 65.27 67.31 67.06 67.33 65.09 64.30 63.79 64.45 63.90 63.38 62.64 61.96 61.35 60.17 60.47
39.21 40.88 43.31 43.16 48.41 50.27 48.78 48.70 52.33 54.35 54.33 54.29 55.29 55.78 55.67 56.61 56.24 57.57 58.22 59.84 58.90 59.37 62.43 64.21 65.93 68.94 69.33 69.92 68.95 68.44 67.06 65.32 65.47 64.43 65.03 66.01 66.72 67.04 65.21 64.54 63.94 63.88 63.08 62.67 61.65 61.18 61.22 60.41 60.31
43.97 44.06 43.14 46.02 49.48 48.34 47.52 48.05 50.48 52.97 52.64 52.58 53.64 53.23 54.72 55.22 57.00 57.46 60.34 59.87 58.66 63.28 65.30 66.40 67.43 69.19 70.12 69.23 68.23 66.39 64.61 63.89 64.35 65.14 65.02 66.15 66.03 66.28 65.16 63.90 63.34 63.58 63.00 62.54 61.67 60.89 60.25 59.82 59.95
42.18 40.20 40.54 45.28 49.03 47.59 47.34 47.21 50.56 52.43 52.36 53.20 53.80 54.06 53.77 54.16 55.24 57.26 57.69 58.73 61.67 61.92 65.45 66.62 69.20 69.46 69.24 69.30 67.43 66.35 63.88 63.75 64.33 63.38 64.31 64.86 65.56 64.96 63.62 63.61 62.79 62.49 61.79 61.51 61.29 61.16 59.82 59.14 59.39
40.49 39.43 40.21 40.52 44.71 46.51 45.21 43.40 46.30 49.90 51.68 52.98 53.54 53.57 54.36 54.62 54.56 55.87 56.50 59.94 62.16 63.57 64.87 66.48 67.70 68.60 68.49 68.25 67.38 65.02 63.37 62.50 61.94 62.13 63.14 64.04 64.69 64.91 63.76 63.40 62.18 62.38 61.49 60.93 59.19 59.62 58.78 57.03 57.97
37.87 43.79 43.35 42.66 41.15 36.55 44.26 35.96 43.92 47.01 48.91 51.39 52.74 52.44 52.74 53.25 54.87 55.11 55.34 60.88 62.39 63.56 64.74 65.42 67.72 67.88 68.07 66.73 64.82 62.88 60.64 60.18 60.90 61.20 62.15 63.09 64.48 65.72 64.60 63.16 62.51 61.64 61.41 60.55 60.39 61.12 59.11 58.15 56.41
40.17 45.35 43.44 43.37 40.74 39.81 41.19 37.48 42.35 46.23 46.45 47.80 50.26 51.55 52.48 53.74 54.77 54.79 55.55 62.32 63.09 63.96 64.19 66.32 67.06 66.62 65.97 64.51 63.77 61.95 60.01 61.18 61.76 62.60 62.02 62.76 62.76 63.52 64.19 63.07 62.45 61.56 61.37 60.99 60.55 59.95 59.36 58.69 57.29
44.78 43.00 42.60 42.09 39.74 33.13 39.47 39.04 39.72 42.78 45.71 48.50 50.82 51.95 52.79 53.29 54.69 56.78 62.50 63.19 63.06 64.45 65.50 66.08 65.65 64.81 64.75 63.98 63.45 61.87 61.22 61.65 60.19 61.28 61.55 61.15 61.94 62.51 63.04 63.49 61.68 61.17 61.14 61.14 61.11 60.90 60.03 59.23 58.57
40.89 36.89 30.60 29.59 31.01 31.01 40.59 39.15 41.52 45.22 48.92 50.40 50.18 51.13 52.66 54.06 56.59 60.71 61.12 61.53 62.56 63.82 64.81 64.72 64.25 62.77 63.59 64.68 62.51 63.75 61.17 61.42 61.37 60.84 60.62 61.33 61.21 61.15 61.57 61.35 60.75 60.91 61.89 62.22 61.69 60.81 60.34 60.29 58.97
36.57 37.47 31.62 24.92 28.32 32.66 40.98 35.43 40.67 48.32 50.76 51.92 52.32 51.60 55.56 59.06 60.01 60.27 60.70 61.32 62.78 63.78 64.03 63.66 63.05 62.71 63.34 62.08 62.79 63.02 62.30 61.45 62.20 61.41 60.96 60.61 60.15 61.14 60.89 62.00 62.14 62.52 63.55 63.64 62.52 61.55 61.06 61.70 60.65
36.62 33.69 40.84 35.39 37.45 33.23 36.81 41.13 45.49 47.90 48.52 51.08 51.07 52.76 57.18 58.59 59.48 59.96 60.19 61.56 62.62 62.88 62.24 63.03 62.70 62.37 62.61 61.86 62.85 62.68 62.33 62.15 62.16 61.74 61.59 61.08 61.19 61.04 62.40 62.17 62.13 62.68 62.55 63.04 62.07 61.26 61.70 60.76 61.54
40.26 40.98 33.62 35.71 27.76 27.05 35.60 37.76 39.31 44.87 47.57 49.30 50.77 52.56 57.00 58.35 59.12 59.76 60.61 61.46 62.22 62.56 62.90 62.79 62.50 61.85 61.98 62.28 62.59 62.58 62.72 62.33 62.28 61.32 60.88 61.17 61.04 61.84 61.95 62.19 62.61 61.95 62.76 62.48 62.29 61.23 62.00 59.90 59.79
37.60 35.69 36.31 36.15 35.81 30.97 29.75 35.54 46.04 47.53 48.79 48.87 50.63 56.68 57.07 57.55 58.59 59.50 60.84 61.64 62.10 62.82 62.79 62.24 61.69 61.56 60.96 62.08 61.98 62.47 61.11 62.33 61.35 61.56 62.54 60.69 60.12 63.09 61.48 62.22 62.45 62.47 62.02 61.60 61.69 61.61 61.85 60.15 59.33
40.45 37.52 37.64 32.44 32.84 36.67 34.92 36.70 49.23 52.10 50.40 50.88 55.73 57.43 57.60 58.70 59.11 60.45 60.83 61.46 61.45 61.73 61.64 61.11 61.01 60.55 61.08 62.40 62.50 63.65 62.23 61.49 61.56 61.05 62.65 60.31 59.75 60.44 61.07 62.24 62.90 62.66 61.43 60.69 62.46 61.19 61.68 60.02 59.81

GFSSGP_sfc_wetblb_030.txt.gz
Wetbulb
65.77 63.02 59.14 56.45 47.21 46.18 42.87 47.53 51.52 54.33 54.51 58.21 59.46 56.59 54.32 55.09 54.76 51.12 61.69 67.85 69.04 68.71 71.37 73.30 74.17 73.69 73.26 72.69 72.25 71.78 71.49 71.16 70.71 69.89 68.92 68.21 68.00 67.53 67.20 66.96 66.75 66.65 67.05 66.89 66.53 66.45 66.43 66.81 67.42
61.20 60.00 54.95 53.23 44.20 40.75 43.18 49.21 49.46 55.31 58.35 60.59 60.46 56.09 58.25 57.64 61.76 62.57 65.10 69.07 69.05 69.25 70.82 71.73 74.17 73.59 73.24 72.70 72.23 71.81 71.44 71.31 70.98 70.25 69.33 68.42 68.44 67.81 67.71 67.49 67.44 67.31 67.74 67.64 67.58 67.77 67.98 68.30 68.48
61.87 61.33 48.91 47.78 45.05 41.93 43.54 50.63 54.77 58.08 59.81 59.33 59.08 61.15 58.81 58.99 63.88 63.66 67.04 69.32 68.95 68.77 70.50 71.11 74.02 73.37 73.24 72.92 72.13 71.84 71.41 71.26 71.26 70.37 69.72 68.89 68.91 69.07 68.82 67.93 67.98 68.20 68.77 68.85 69.09 69.28 69.48 69.48 69.36
57.38 55.61 51.45 45.14 44.92 48.55 50.10 53.61 55.43 57.80 59.49 59.66 59.84 58.02 59.43 62.12 62.77 65.30 69.98 69.49 67.88 68.55 69.92 72.75 73.62 73.32 73.30 73.15 72.38 71.84 71.59 71.51 71.43 70.75 70.45 69.86 69.40 69.79 69.70 68.90 69.10 69.19 69.51 69.89 70.32 70.50 70.57 70.41 70.12
55.59 51.23 43.14 42.99 46.24 51.36 54.75 56.52 56.10 56.92 58.54 58.16 59.90 57.73 57.04 62.56 64.69 69.96 69.65 69.29 67.26 67.54 68.25 71.44 73.62 73.35 73.27 73.30 72.65 71.98 71.71 71.57 71.76 71.59 71.11 70.73 70.74 70.50 69.68 69.63 69.67 69.70 69.90 70.34 70.67 70.72 71.11 70.58 70.31
50.19 49.70 41.98 41.80 46.21 51.74 53.90 55.20 54.96 58.22 59.25 59.45 58.74 57.00 55.96 61.78 64.18 68.89 69.99 68.76 68.55 67.18 66.93 70.09 73.27 73.45 73.10 72.88 72.50 72.01 71.84 71.62 71.94 72.06 71.86 71.57 71.59 71.32 70.58 70.35 70.05 70.22 70.82 71.11 70.78 70.56 70.41 70.31 69.85
46.91 44.04 42.01 45.12 47.37 49.95 53.65 56.83 53.62 53.74 54.88 55.20 57.77 55.07 57.02 59.81 61.97 65.10 69.44 69.13 69.13 68.11 66.64 68.94 70.38 72.06 73.35 72.63 72.28 72.01 71.91 71.76 71.78 71.93 71.96 72.06 72.03 71.98 71.83 71.47 70.93 71.00 71.49 71.49 70.73 70.28 69.87 69.41 69.04
50.29 45.98 41.78 44.14 45.82 47.42 54.68 55.05 54.98 54.07 55.49 59.52 59.06 54.26 53.88 59.50 62.00 61.61 62.38 64.10 68.36 68.17 67.71 68.75 69.06 69.89 70.24 70.53 72.80 72.38 72.13 71.88 71.66 72.10 72.24 71.97 72.17 72.10 71.83 71.42 71.84 71.44 71.64 71.51 70.58 69.84 68.86 68.63 68.41
53.79 43.06 40.22 43.83 46.30 49.29 54.16 52.85 57.01 58.69 56.65 57.63 58.43 57.55 58.88 61.99 62.06 60.02 58.07 57.82 60.55 67.44 68.11 68.92 68.99 68.18 69.04 69.45 70.73 72.32 72.67 72.15 71.95 71.87 72.12 71.16 69.40 69.28 69.94 71.13 71.32 71.64 71.61 71.49 70.58 69.50 68.94 67.90 67.29
52.70 45.35 44.33 48.65 50.65 49.64 52.09 53.02 53.98 55.47 55.41 56.38 57.80 60.54 61.98 61.48 57.91 57.52 57.85 57.10 58.77 65.90 67.70 68.36 68.70 68.58 68.02 69.15 68.98 70.06 69.71 69.49 69.33 69.02 68.84 69.00 67.76 66.89 69.27 69.67 71.43 71.97 72.10 71.70 70.77 69.72 68.77 67.51 62.97
53.16 49.68 51.32 51.00 51.71 52.37 51.61 52.37 55.14 53.66 52.14 55.27 56.08 57.83 59.67 59.70 59.05 57.44 56.97 57.22 57.09 59.91 68.20 68.77 68.64 68.92 68.33 67.91 68.03 69.64 68.87 68.46 68.70 68.17 67.76 68.26 67.67 66.53 66.64 65.01 66.55 69.58 71.08 67.29 68.69 67.13 65.70 63.15 62.57
48.58 54.30 55.49 54.91 55.36 53.63 51.81 53.47 52.90 54.13 54.07 57.60 57.94 58.27 58.32 57.94 57.93 57.64 56.77 57.20 56.88 57.38 65.68 68.96 68.97 68.59 68.34 68.09 68.08 68.44 68.30 67.78 68.03 68.28 67.52 67.40 66.29 64.72 63.98 63.87 63.68 64.99 64.90 64.35 63.34 62.78 62.52 62.52 62.69
46.90 51.41 53.45 54.09 54.52 54.41 54.71 52.73 52.83 53.63 56.65 58.31 59.00 58.55 57.02 56.00 56.72 56.81 57.54 57.26 57.02 56.27 56.79 67.78 68.82 68.52 68.47 67.85 68.29 68.37 67.99 67.46 67.74 68.12 67.23 67.07 65.85 64.54 64.37 63.90 62.94 63.55 62.78 62.96 61.98 61.74 62.37 61.90 62.04
45.51 46.42 49.50 51.82 51.59 52.33 52.13 53.27 54.55 55.52 57.85 57.48 57.22 56.27 55.90 55.74 56.17 56.26 56.41 56.98 56.45 57.46 57.21 63.25 68.16 68.53 68.86 68.31 67.95 68.35 68.39 67.61 67.09 67.26 66.76 66.44 66.46 65.19 64.04 62.84 62.03 62.99 62.92 62.46 62.12 61.82 61.57 61.83 61.95
46.22 42.93 46.24 47.82 48.66 50.25 53.14 49.70 50.76 55.61 56.28 55.07 55.09 55.21 55.82 56.36 57.00 56.18 57.40 56.97 57.39 57.49 57.81 59.97 66.49 69.31 69.01 68.69 67.82 68.33 68.13 67.63 66.87 66.40 66.49 66.69 66.51 65.13 64.31 63.33 63.58 63.21 62.25 61.95 62.02 61.68 61.37 60.63 61.00
42.83 41.97 39.96 46.49 48.54 48.99 49.41 44.21 52.44 54.49 53.50 53.27 54.60 55.71 56.55 56.95 57.63 57.87 57.52 56.37 56.72 57.01 57.98 57.68 66.55 68.52 68.89 68.66 67.46 68.38 68.15 67.64 66.91 66.57 67.04 67.49 66.74 65.15 63.89 63.26 62.77 63.17 62.49 62.08 61.10 60.77 60.65 60.35 60.39
39.90 38.11 39.43 42.73 48.96 48.64 48.12 45.23 50.89 53.38 53.14 52.37 53.38 54.55 55.62 56.40 57.14 56.30 57.54 57.74 57.91 58.28 58.42 58.28 64.67 65.80 67.29 68.04 67.04 67.79 67.86 67.45 66.22 66.01 67.33 66.96 66.44 65.79 64.49 63.40 63.17 63.09 62.42 61.92 61.49 60.96 59.51 59.01 59.35
36.63 38.14 40.95 40.55 45.88 47.92 46.29 46.18 50.04 52.03 52.27 52.14 52.94 54.18 54.79 55.55 56.18 57.91 57.96 57.72 57.54 57.56 57.31 58.31 65.28 65.17 66.43 66.59 66.46 66.52 65.18 64.30 64.39 65.35 66.04 65.85 65.95 66.38 64.01 63.50 63.05 62.60 61.99 61.47 60.81 60.58 60.30 59.78 59.08
41.63 40.47 40.44 43.37 46.84 45.93 45.66 46.09 48.43 50.95 51.49 50.48 51.75 52.90 53.67 53.85 55.89 57.18 57.24 56.83 56.95 56.90 57.17 60.30 65.11 65.86 68.06 66.91 66.81 65.73 63.83 63.04 62.95 64.01 65.33 65.40 65.08 65.37 64.14 62.99 62.74 62.03 61.99 61.36 60.60 60.08 60.08 59.91 60.44
38.92 37.43 37.57 41.52 44.82 45.33 44.94 44.81 48.27 50.16 50.57 51.29 51.73 52.25 52.78 52.72 53.70 54.89 55.44 56.70 57.97 60.31 62.25 61.84 65.04 67.34 67.78 68.31 66.47 65.02 63.49 62.45 62.81 63.21 65.33 65.96 65.12 64.93 63.82 63.29 61.88 61.58 60.65 60.17 59.42 59.16 57.90 58.58 60.39
38.39 36.62 37.91 38.26 42.30 43.85 41.28 40.04 42.78 46.71 48.35 49.31 50.37 51.89 52.36 53.13 53.18 53.69 55.08 55.70 57.61 60.33 62.97 64.93 66.55 66.82 66.89 66.42 65.48 62.69 61.93 61.58 60.58 60.65 61.29 63.26 64.63 64.20 63.32 62.51 61.50 60.94 60.42 59.92 58.59 58.17 57.49 55.91 57.11
34.63 41.50 41.17 39.84 38.00 33.12 41.06 32.39 40.38 44.06 45.54 47.60 48.96 49.20 51.20 51.92 52.69 53.89 54.08 56.45 59.17 61.71 64.46 66.44 67.00 67.14 67.11 66.77 64.57 63.37 59.98 59.23 59.83 60.48 60.80 62.05 63.32 63.65 63.74 62.82 61.89 61.00 59.99 59.11 59.13 59.45 57.53 56.61 54.97
36.44 42.30 41.35 40.83 37.42 36.20 37.12 33.13 39.25 43.18 43.26 46.01 48.30 49.89 51.59 52.01 51.26 51.73 53.20 57.87 60.71 63.16 63.62 66.53 66.49 66.78 65.55 64.62 63.88 61.90 59.59 59.62 59.14 60.45 60.80 61.69 61.78 62.73 63.41 61.98 61.32 60.46 60.06 59.79 59.67 59.51 58.57 57.45 55.79
40.40 39.93 39.24 39.22 35.21 28.79 35.94 35.05 36.38 39.71 42.62 45.43 48.28 49.33 50.72 50.84 50.63 54.74 56.59 61.20 61.63 63.17 64.94 65.45 65.01 63.22 63.59 63.06 61.73 59.96 59.76 59.17 59.89 59.83 59.83 59.75 60.37 61.52 62.03 62.07 60.65 60.32 60.08 59.88 59.74 59.84 59.21 58.43 57.41
36.51 30.63 26.10 24.17 25.99 28.24 37.93 35.10 38.36 42.23 44.80 46.37 47.29 49.10 50.40 49.97 51.77 58.51 59.38 60.89 62.42 63.66 64.55 63.81 63.48 62.07 62.17 60.99 60.70 60.49 60.37 59.57 59.88 59.59 59.23 59.84 59.81 59.85 60.20 60.55 59.97 60.01 60.87 61.32 61.26 60.16 59.45 58.77 57.91
32.69 31.51 25.87 21.02 23.40 29.32 38.41 32.09 37.35 45.04 47.75 48.85 49.64 50.09 50.54 53.87 56.35 58.42 59.70 61.24 63.05 63.62 63.49 62.83 62.14 61.90 61.42 61.30 60.61 60.46 60.52 60.41 60.07 59.81 59.77 59.67 59.37 59.92 60.43 60.36 60.36 61.01 61.87 62.14 61.69 60.61 60.09 59.50 59.69
34.07 30.20 34.63 29.78 33.64 28.79 33.78 37.67 42.45 46.07 46.35 47.41 47.37 50.18 54.46 55.81 57.26 58.32 60.46 62.15 62.52 62.05 61.87 61.66 61.33 60.92 60.35 61.23 60.68 60.60 60.96 60.67 59.88 59.41 59.56 59.42 59.54 59.58 60.83 61.11 61.21 61.46 61.93 62.16 61.76 61.07 60.19 59.47 59.03
36.90 39.14 28.60 28.63 23.78 22.53 31.07 33.85 36.44 41.21 43.62 45.94 45.93 52.58 54.74 55.97 57.53 59.06 60.66 61.45 61.70 61.49 61.69 61.32 61.04 59.96 60.22 61.03 60.94 60.94 60.54 61.06 60.60 60.37 59.93 59.73 59.34 60.59 60.62 60.95 61.29 60.95 61.22 61.67 61.59 60.87 60.92 59.72 58.49
32.78 32.50 32.19 31.48 30.20 27.65 25.23 31.41 41.16 42.94 44.53 45.65 45.85 54.64 55.21 56.65 57.48 59.16 60.23 60.99 61.26 61.93 61.56 60.67 60.35 60.01 60.33 60.87 60.49 60.75 60.65 61.07 60.22 59.48 59.73 59.82 59.43 60.61 60.82 61.36 61.76 61.44 60.67 60.78 60.60 60.81 60.60 59.18 59.00
37.15 33.81 33.03 26.61 26.60 31.35 30.81 33.38 45.36 45.88 46.02 49.35 50.82 55.86 56.13 56.92 58.18 59.40 59.93 60.60 61.14 61.26 61.06 60.06 59.89 59.49 60.15 60.85 60.42 59.97 60.66 59.98 59.55 59.98 60.13 58.87 58.89 59.52 60.65 61.21 61.82 61.92 60.40 59.84 60.13 60.54 60.46 59.31 59.40

GFSSGP_sfc_wetblb_033.txt.gz
Wetbulb
66.57 63.68 57.70 54.74 45.91 44.73 40.34 44.59 49.63 51.33 54.24 56.84 57.52 54.02 54.99 55.67 54.96 50.06 60.92 66.35 67.33 68.21 71.02 72.93 74.15 73.87 73.22 72.80 72.30 72.03 71.62 71.17 70.81 70.01 68.96 68.36 67.97 67.39 66.96 66.59 66.54 66.48 66.59 66.56 66.64 66.43 66.22 66.48 66.62
60.60 59.42 54.88 51.55 42.11 39.14 39.88 47.22 48.54 53.48 57.63 58.45 56.66 56.12 56.14 56.24 60.44 61.98 62.40 67.61 68.01 69.10 70.87 71.56 74.07 73.65 73.42 72.85 72.43 72.01 71.35 71.19 70.92 70.19 68.82 68.25 68.06 67.73 67.41 67.22 67.04 67.34 67.53 67.31 67.23 67.36 67.60 67.78 67.70
60.83 58.86 49.60 47.26 43.24 40.02 41.09 48.81 52.21 57.56 59.06 57.70 56.65 58.37 58.16 58.55 63.28 62.99 65.00 68.14 68.43 68.96 70.72 70.99 73.92 73.40 73.47 73.08 72.41 71.74 71.49 71.39 70.97 70.10 69.46 68.90 68.45 68.67 68.67 67.61 67.75 67.84 68.08 68.17 68.24 68.66 68.64 69.12 69.09
57.17 54.76 50.39 44.04 42.96 46.20 46.98 50.36 53.41 55.58 58.52 58.10 57.68 55.78 58.05 63.49 63.94 64.87 68.57 68.53 67.84 68.47 70.26 71.63 73.84 73.52 73.37 73.03 72.41 71.89 71.64 71.32 71.14 70.63 70.10 69.62 68.97 69.50 69.18 67.92 68.13 68.19 68.70 69.10 69.39 69.61 69.69 69.95 70.07
54.98 49.89 41.54 41.51 44.05 49.09 52.48 53.91 53.21 52.42 56.06 56.55 57.50 55.90 55.77 61.10 64.98 68.41 68.33 68.36 66.33 67.70 69.39 70.73 74.02 73.65 73.37 73.25 72.63 71.99 71.49 71.30 71.32 71.19 70.54 70.08 70.34 70.18 68.98 68.54 68.76 69.00 69.34 69.76 69.99 70.27 70.71 70.97 70.98
49.58 48.45 40.57 39.65 43.78 49.12 51.98 53.38 53.42 53.69 56.78 57.63 56.93 55.69 55.98 60.59 65.93 67.50 68.32 67.42 67.21 67.13 68.22 69.56 73.72 73.45 73.15 73.10 72.71 71.89 71.40 71.22 71.35 71.35 71.37 71.05 70.90 70.53 69.36 69.23 69.55 69.65 69.82 70.16 70.49 70.59 70.83 70.51 70.51
46.16 43.96 41.62 43.64 45.74 48.28 52.46 53.49 51.85 54.17 53.12 55.59 56.85 53.90 55.68 59.55 62.96 67.88 67.95 67.32 66.67 66.80 67.02 68.56 71.07 71.99 73.42 72.95 72.50 71.74 71.54 71.27 71.37 71.52 71.44 71.42 71.39 71.10 70.83 70.34 69.89 69.96 70.26 70.90 71.25 71.03 70.73 70.70 69.94
48.41 45.23 40.65 43.37 44.86 46.33 53.48 53.08 53.28 52.77 54.21 57.76 59.11 53.71 52.89 59.65 61.58 64.77 65.94 65.77 65.90 65.59 65.38 66.98 69.35 69.75 69.97 70.57 72.88 72.13 71.91 71.64 71.42 71.56 71.63 71.48 71.73 71.63 71.53 70.95 71.11 70.24 70.68 71.30 71.52 71.12 70.29 69.85 69.55
50.78 41.40 39.37 42.95 45.10 47.47 52.55 52.19 56.08 57.61 55.73 56.14 56.87 56.87 58.77 61.24 60.56 59.50 58.15 58.44 63.46 66.33 64.58 65.81 67.48 67.97 68.67 68.74 70.19 72.08 72.09 72.03 71.63 71.58 71.85 70.86 68.89 69.23 69.42 70.42 70.63 70.56 71.20 71.49 71.41 70.83 70.45 69.29 68.34
48.66 41.38 42.43 47.24 49.18 48.31 50.10 50.20 52.19 53.52 53.65 53.64 55.04 58.95 59.98 60.30 58.89 58.47 56.92 57.33 58.19 64.70 65.46 66.73 66.97 66.64 67.36 68.06 67.47 69.14 68.79 68.74 69.22 68.90 68.65 68.97 67.09 66.71 68.86 69.36 70.68 70.61 71.22 71.65 71.60 71.16 69.68 68.58 63.72
51.31 47.15 49.22 49.87 51.02 51.40 50.84 49.93 52.93 52.07 50.54 53.40 54.18 56.37 58.05 58.44 56.78 56.55 56.95 57.49 57.21 61.36 65.51 67.07 67.27 66.91 66.09 66.32 66.84 68.01 68.20 67.76 68.17 67.74 67.19 67.14 67.14 66.62 67.99 65.82 66.76 67.46 70.91 68.58 69.49 68.19 66.38 64.65 62.62
48.41 52.50 53.95 53.16 53.35 52.86 52.04 53.76 51.74 51.86 52.39 55.69 56.65 57.28 57.12 56.86 56.54 56.15 55.41 55.87 55.86 55.58 63.55 67.17 67.70 67.27 66.52 65.70 66.42 66.32 67.24 66.79 67.04 67.50 66.53 66.80 66.05 64.38 63.97 64.17 62.97 64.77 66.41 66.46 65.36 65.01 63.83 62.91 62.63
46.35 50.78 52.29 54.22 53.94 54.79 55.70 53.44 52.88 53.12 55.75 56.73 57.11 57.14 56.74 56.63 55.87 55.46 56.16 56.06 55.66 54.78 58.12 65.70 67.52 67.28 67.33 66.15 65.93 65.80 66.89 66.31 66.02 66.65 66.87 66.52 65.60 64.34 63.75 63.21 62.69 63.18 63.57 64.06 63.18 62.27 61.83 61.42 61.53
44.02 46.24 47.62 49.63 50.48 50.37 50.35 50.97 52.14 53.70 56.70 56.70 56.94 56.41 55.54 54.87 55.08 54.94 55.13 55.33 55.74 56.33 55.57 61.45 66.65 67.20 67.13 66.75 66.20 66.03 66.59 66.29 65.65 66.67 66.81 66.27 65.35 63.99 63.54 62.99 62.84 62.13 62.04 62.69 62.40 61.91 61.18 60.92 61.34
43.85 40.77 44.71 45.49 45.35 45.63 49.88 47.28 48.58 53.25 55.02 54.43 55.45 55.10 55.16 54.54 55.24 54.67 55.34 55.34 56.56 56.95 57.34 57.09 64.91 67.03 66.88 67.03 66.71 66.79 66.86 66.51 65.61 66.36 66.51 66.09 65.33 64.04 63.42 63.10 61.91 61.90 62.27 61.61 61.17 61.00 60.68 60.24 60.46
40.90 39.09 37.14 44.31 46.22 47.03 48.07 42.87 49.91 53.20 53.41 53.09 53.89 53.60 54.33 55.18 54.92 55.57 55.95 55.63 56.18 55.86 55.52 55.76 63.32 66.76 66.78 66.89 66.79 67.10 67.34 66.91 66.11 65.89 65.82 65.96 65.65 64.76 63.43 64.00 62.74 62.76 61.79 61.01 60.87 60.10 59.56 59.24 59.00
37.80 36.17 37.61 41.42 47.13 46.69 46.37 43.80 49.69 52.30 51.86 51.22 52.09 53.00 53.56 53.90 54.36 55.39 56.59 56.91 56.91 56.31 56.35 55.90 61.01 66.16 66.98 66.95 66.89 66.61 66.29 66.45 66.20 65.48 65.56 65.71 65.87 65.18 64.57 63.73 62.59 62.31 61.25 60.51 60.40 59.44 59.18 58.30 58.58
34.30 35.59 38.29 38.47 43.65 45.51 44.16 44.23 48.30 50.28 49.94 49.88 50.36 51.48 52.30 53.20 54.04 56.17 57.18 57.32 56.14 55.50 55.48 55.68 59.37 63.22 65.96 65.64 64.22 64.59 65.53 64.43 65.20 65.71 66.35 66.29 66.09 65.67 64.14 63.13 62.44 61.92 60.95 60.65 59.89 59.64 58.83 59.01 59.19
37.66 37.28 36.61 40.93 44.75 44.04 43.06 43.70 46.11 48.66 49.28 49.54 50.65 51.75 52.23 52.70 54.26 55.33 55.78 56.48 55.19 54.78 54.73 55.52 58.99 62.27 65.05 65.20 64.78 63.97 64.71 63.54 63.43 65.29 65.84 65.46 65.49 65.63 63.83 62.69 61.93 61.30 61.07 60.86 59.68 58.69 58.79 58.33 59.21
36.95 34.85 34.58 39.68 43.15 41.28 41.76 41.88 44.89 47.17 48.10 49.42 49.84 50.07 50.55 51.54 52.95 53.96 54.25 53.95 54.14 55.86 55.51 54.06 57.90 63.02 65.11 65.80 65.65 63.27 62.86 61.51 63.21 64.51 65.53 65.69 65.25 64.87 63.38 62.18 61.47 61.14 60.23 59.90 58.95 60.76 57.20 58.22 59.75
35.13 34.36 35.26 35.84 40.62 41.83 39.57 38.28 40.85 44.28 45.41 47.42 48.67 49.82 49.77 50.14 51.26 51.74 52.83 53.06 53.51 54.75 56.82 58.32 59.94 63.89 64.98 64.24 62.99 62.02 61.63 60.83 60.34 61.26 62.61 63.39 64.24 63.91 63.13 62.42 61.53 60.70 59.73 59.29 58.14 57.58 57.58 55.33 58.43
31.04 38.69 39.01 38.34 35.50 30.89 38.62 30.06 38.47 41.90 43.04 45.19 45.87 47.01 48.21 49.63 50.42 50.92 52.43 52.36 53.21 55.28 61.13 62.78 63.99 64.88 65.10 64.76 62.60 62.55 61.37 60.22 58.91 59.94 60.52 61.87 63.44 63.42 63.36 64.11 62.59 61.84 60.55 58.70 58.28 59.08 56.74 55.92 54.83
34.28 38.54 37.59 38.17 35.14 31.82 33.80 29.80 36.84 39.17 39.72 42.41 44.89 46.34 47.89 49.49 50.15 49.94 51.28 51.19 54.61 60.75 62.94 64.13 65.26 65.25 64.67 63.78 63.14 61.32 59.94 59.17 58.98 59.59 60.04 60.16 61.04 62.43 63.28 62.84 62.74 61.03 59.13 58.98 59.02 58.94 57.18 56.64 55.94
38.67 35.88 35.76 35.40 32.14 24.87 33.32 31.83 33.70 37.15 40.07 42.12 45.00 46.49 47.79 48.11 48.83 49.45 51.52 52.66 58.40 61.78 64.22 64.85 64.71 62.81 63.17 62.63 61.30 60.93 59.90 58.79 58.88 58.34 58.72 58.94 59.40 60.66 62.07 61.59 60.60 59.90 59.27 59.18 58.96 58.90 58.34 57.54 56.74
34.72 28.35 22.59 21.50 22.46 25.01 35.15 32.40 35.58 39.26 42.18 43.18 43.78 45.49 46.86 47.53 47.38 50.19 56.32 57.98 60.44 62.31 62.95 63.75 63.50 61.32 61.56 60.99 60.16 60.08 59.47 59.40 58.96 58.71 58.82 58.60 58.92 58.96 59.73 59.98 59.07 58.85 59.52 59.31 58.94 58.76 58.82 58.18 56.84
31.25 29.52 22.89 19.99 22.29 26.17 35.93 30.15 35.66 42.24 45.21 46.51 46.74 45.94 46.48 46.86 49.52 51.34 57.14 59.40 61.79 62.44 61.96 62.47 62.24 59.93 60.08 59.92 59.37 59.62 59.43 59.34 59.14 58.81 58.92 58.94 58.72 58.94 59.56 59.62 58.99 59.65 59.97 60.14 60.32 60.01 59.77 59.08 58.40
32.26 27.77 33.52 26.91 28.80 25.16 30.83 35.04 40.60 43.87 44.25 44.62 44.87 44.83 44.89 48.99 54.79 56.56 59.53 61.19 61.72 61.51 60.27 61.59 60.92 59.75 60.13 59.53 59.39 59.39 59.76 59.50 58.95 58.84 58.95 58.70 58.55 59.56 59.26 59.78 59.78 60.19 61.00 60.65 60.65 60.78 60.82 60.59 58.90
34.81 37.15 26.87 25.15 21.21 20.78 27.70 30.60 33.88 38.59 41.75 43.02 43.99 44.35 46.83 53.96 56.16 58.79 60.45 60.77 61.05 60.89 60.05 60.55 60.30 60.17 59.74 59.72 60.27 60.09 59.64 59.43 59.06 58.73 58.45 58.47 58.25 59.26 59.51 59.50 59.62 60.14 60.42 60.83 60.26 60.40 60.67 59.56 57.54
31.59 30.22 31.37 29.63 27.03 22.77 22.96 27.90 38.59 40.45 41.92 42.43 43.83 46.70 50.29 54.37 56.74 59.01 59.89 60.26 60.60 60.11 60.26 59.30 59.69 60.08 59.60 60.03 59.32 59.64 59.57 59.70 59.22 59.01 58.97 58.80 58.39 59.73 59.62 60.21 60.63 60.55 59.84 59.92 59.77 59.92 59.84 59.04 58.47
35.41 33.44 32.30 25.63 25.47 28.80 27.06 29.46 42.46 40.55 40.93 43.53 46.00 50.53 53.81 55.50 57.56 58.94 59.28 60.08 60.43 59.81 59.93 58.89 59.17 59.94 59.80 59.64 59.51 59.16 59.30 58.90 58.28 58.52 58.92 58.43 58.69 59.58 59.85 60.52 60.93 61.02 60.18 59.02 59.38 59.95 59.72 58.58 58.60

GFSSGP_sfc_wetblb_036.txt.gz
Wetbulb
66.64 63.97 56.03 53.14 44.75 43.36 38.95 43.01 47.24 48.06 51.92 54.89 56.40 54.29 55.07 54.75 53.97 49.51 60.76 65.53 66.49 66.93 71.33 73.14 74.52 74.15 73.47 73.02 72.65 72.58 72.11 71.64 71.28 70.69 70.34 69.85 69.48 68.75 67.93 67.79 66.89 66.69 66.57 66.69 66.91 66.51 66.14 66.25 66.30
61.61 58.60 54.10 50.49 41.10 37.76 38.41 45.28 46.69 49.69 55.82 58.09 56.99 56.78 55.02 54.66 58.48 59.78 60.63 66.22 66.76 68.11 70.70 71.70 74.47 74.07 73.65 73.22 72.78 72.56 72.14 71.69 71.38 70.89 70.13 69.54 69.53 68.94 67.56 67.32 66.97 67.12 67.28 67.02 66.69 66.75 66.92 67.12 67.07
58.73 57.23 49.36 46.46 41.63 38.95 40.25 47.70 49.64 53.50 57.51 56.94 55.40 57.63 57.33 57.16 61.73 60.99 63.51 67.15 67.91 68.58 70.22 70.62 74.32 73.85 73.72 73.32 72.85 72.51 72.04 71.69 71.51 71.16 70.39 69.72 69.51 69.62 69.15 67.94 67.77 67.90 68.31 67.91 67.85 68.11 68.13 68.26 68.39
57.26 53.07 49.65 42.88 41.93 45.17 44.97 49.59 51.25 52.66 54.87 58.10 56.40 55.28 57.25 62.48 62.99 63.56 67.02 67.84 67.27 68.04 69.76 71.64 74.05 73.65 73.60 73.70 73.18 72.48 72.11 71.96 71.66 71.21 70.93 70.50 69.63 69.72 69.51 68.30 68.12 68.32 68.81 68.89 68.72 68.99 69.24 69.59 69.77
54.04 48.86 42.34 40.44 42.72 47.15 48.94 52.15 51.21 50.50 52.78 55.90 56.67 54.82 54.71 60.22 64.20 66.66 67.23 67.79 66.76 67.36 69.05 70.41 73.99 73.62 73.77 73.85 73.28 72.83 72.36 72.06 71.79 71.51 71.11 70.48 70.46 69.86 69.13 68.65 68.51 68.54 69.08 69.41 69.75 69.90 70.09 70.53 70.78
48.24 47.31 39.19 39.00 42.52 48.00 48.93 51.13 50.97 51.01 53.43 55.86 56.69 54.89 54.76 59.00 64.72 66.24 67.49 66.40 66.75 67.42 68.48 69.48 73.85 73.74 73.32 73.33 73.30 72.61 72.09 72.01 71.74 71.54 71.27 70.92 70.65 70.24 69.68 69.17 68.86 69.16 69.58 69.93 70.10 70.22 70.63 70.73 70.12
46.28 42.34 39.62 42.62 44.79 47.24 49.77 52.25 50.95 51.49 52.31 54.75 56.81 53.46 55.07 57.99 62.61 66.65 66.51 66.18 65.50 66.52 67.76 68.29 71.48 72.52 73.75 73.37 72.88 72.38 71.94 71.72 71.62 71.37 71.25 71.18 71.13 70.90 70.41 70.21 69.83 69.88 70.01 70.23 70.58 71.12 71.08 70.80 69.95
47.69 43.73 39.13 42.45 44.05 45.00 51.54 51.15 52.06 52.13 52.71 57.08 58.23 52.45 51.27 57.40 61.60 66.13 65.74 64.86 64.34 64.77 65.95 66.14 69.30 70.58 70.75 71.10 73.15 72.70 72.03 71.74 71.54 71.54 71.57 71.22 71.34 71.12 70.83 70.31 70.66 70.33 70.24 70.71 71.17 71.17 71.10 70.50 69.98
48.82 39.73 37.45 41.75 44.56 46.28 50.91 47.08 53.47 55.53 53.82 54.28 56.27 56.41 58.06 60.02 60.38 61.73 61.32 60.86 64.00 65.39 63.60 64.39 67.30 68.36 69.13 69.38 70.63 72.50 72.38 72.21 71.91 71.74 71.73 70.73 69.13 69.31 69.14 70.31 70.36 70.49 70.76 71.12 71.49 71.61 71.30 69.89 68.75
47.12 39.23 41.41 46.25 48.64 48.11 50.12 48.32 50.06 51.84 51.28 52.06 54.14 57.61 58.47 59.50 58.29 58.21 59.01 60.87 60.01 63.57 64.59 63.55 65.26 67.17 67.71 68.65 68.13 69.59 69.25 69.02 69.33 69.21 69.19 69.21 68.08 68.31 69.08 69.79 70.48 70.36 71.17 71.76 72.02 71.94 70.85 69.29 66.44
50.17 44.89 46.46 46.96 49.37 50.31 50.30 49.58 51.11 49.70 48.54 51.63 51.71 54.35 55.85 56.79 56.44 56.78 57.60 59.15 61.59 61.63 64.52 64.96 64.71 65.86 66.53 66.95 66.44 67.58 68.34 67.69 68.18 67.88 67.95 68.51 67.63 68.28 68.93 67.68 68.56 68.50 70.44 69.19 70.62 70.42 69.31 66.80 65.57
47.11 51.40 51.99 51.27 52.55 51.37 49.69 52.25 50.78 51.18 50.79 54.07 54.49 54.97 54.93 55.56 55.02 55.18 55.54 56.03 56.80 56.33 59.29 64.22 65.64 65.62 65.64 66.38 65.75 65.86 67.00 66.60 66.98 67.60 67.23 67.13 67.30 66.48 67.11 66.56 66.11 66.08 67.14 68.44 67.99 67.41 66.96 66.07 65.36
49.41 50.15 52.38 54.83 55.05 53.84 54.86 53.49 52.87 53.64 56.80 56.82 57.02 57.19 56.22 55.05 54.92 55.05 55.65 55.22 55.16 54.59 55.76 58.57 65.60 66.18 66.14 64.93 64.99 65.21 65.64 66.09 65.88 66.49 66.96 66.96 66.57 65.38 65.33 65.54 64.54 63.87 65.19 66.44 66.42 66.00 65.35 64.62 64.05
43.34 46.03 49.50 50.79 50.83 51.01 50.37 50.83 50.36 52.28 55.91 55.66 55.90 55.75 55.94 55.50 55.06 54.89 53.89 54.12 54.60 55.25 55.39 56.28 64.11 66.27 66.51 65.29 64.63 64.93 65.00 65.56 65.16 65.53 66.42 66.56 66.10 64.81 64.65 64.22 63.39 63.26 63.67 64.48 65.06 64.50 64.01 63.11 62.99
42.58 39.95 42.05 43.56 45.26 47.53 50.70 47.29 48.38 52.84 53.89 53.02 53.81 54.44 55.15 55.93 54.26 53.79 54.79 54.83 55.16 55.19 56.13 54.98 60.61 65.65 66.12 66.32 65.76 65.03 64.93 65.49 65.05 65.10 66.29 66.31 65.55 64.33 63.89 63.51 62.90 63.37 63.49 63.72 63.49 63.40 63.03 62.51 62.29
39.25 38.01 36.70 43.94 43.82 45.49 47.69 42.39 49.77 52.32 52.57 52.02 52.92 53.33 54.10 54.72 53.63 54.29 54.85 54.61 54.94 54.42 54.55 55.74 59.69 65.06 65.84 66.17 66.60 66.02 65.78 65.75 65.42 65.20 66.45 66.18 65.24 64.73 63.35 62.98 63.11 63.72 63.22 63.20 62.72 62.38 61.78 61.91 61.49
35.90 35.59 34.85 39.00 45.07 45.34 44.89 42.90 48.29 50.92 50.31 50.31 50.70 50.78 51.76 52.56 53.03 53.55 54.38 54.57 54.73 55.04 55.26 55.34 55.99 62.35 64.95 65.94 66.14 65.70 65.73 66.02 65.55 65.45 66.04 65.86 65.69 65.13 63.89 63.44 63.66 63.85 63.35 62.87 62.46 61.92 62.07 61.39 61.19
31.94 33.28 36.81 36.60 41.50 43.97 41.82 42.98 46.70 48.75 49.19 49.48 50.17 50.45 50.29 51.15 51.67 53.49 54.33 54.99 55.32 55.06 54.78 54.26 54.30 58.24 63.34 64.71 64.37 64.40 65.23 65.57 65.37 65.18 65.45 65.71 65.73 65.44 64.38 63.84 63.69 63.62 62.87 62.30 61.80 61.61 61.23 61.38 61.08
36.29 34.53 34.29 38.40 42.77 41.45 41.47 42.61 44.97 47.09 47.06 47.53 48.84 49.70 50.62 51.47 53.84 54.43 53.97 54.73 54.37 54.31 54.02 54.37 54.48 58.45 64.74 64.52 63.53 63.17 64.47 64.85 64.81 65.44 65.82 65.80 66.02 65.44 64.83 63.99 63.62 63.61 62.64 62.80 61.95 61.45 60.89 60.57 61.31
35.54 32.46 32.31 37.15 40.98 39.35 38.52 38.02 41.33 43.30 44.40 46.41 47.75 48.38 48.75 49.37 50.02 51.88 52.34 53.68 52.76 53.49 54.33 53.62 54.11 60.00 64.37 64.88 63.75 63.85 63.74 63.94 64.46 65.22 66.01 66.47 65.98 65.42 64.64 63.97 63.54 62.82 62.15 61.98 61.54 61.57 60.08 59.72 60.43
33.07 32.19 32.70 33.77 38.72 40.01 37.95 36.74 39.99 43.46 43.60 45.18 46.10 47.25 48.48 49.54 50.36 51.50 51.79 51.58 51.74 51.91 53.24 54.48 54.14 60.32 62.98 63.60 62.63 61.59 61.46 61.62 61.85 63.08 64.05 64.96 65.78 65.60 64.62 63.61 62.90 62.33 62.29 61.49 60.93 60.45 59.49 57.80 59.92
29.68 36.85 36.87 36.75 33.70 28.84 36.51 27.99 37.14 40.79 42.01 43.36 44.08 44.96 46.59 46.79 48.88 50.10 50.01 50.46 52.28 53.15 53.68 57.57 59.29 62.08 63.56 63.46 62.04 62.72 61.11 60.95 60.85 62.71 63.16 64.02 65.02 64.62 63.98 63.15 62.88 62.90 62.49 61.85 60.98 60.54 59.40 58.62 57.19
32.17 37.42 35.57 36.22 32.44 30.11 32.46 27.92 35.48 36.99 37.68 39.17 42.65 44.75 45.77 47.24 47.54 47.93 48.57 50.64 52.13 51.58 57.36 61.21 62.81 63.98 63.81 63.28 63.04 61.69 60.18 59.52 60.08 60.81 61.67 62.07 62.94 63.69 64.02 64.02 63.75 62.86 62.24 61.52 60.85 60.66 59.20 58.82 58.44
38.19 35.17 33.99 32.09 29.95 23.58 30.72 30.27 32.36 35.31 38.10 40.31 41.85 43.70 44.79 44.89 45.57 46.83 48.46 48.68 50.34 57.61 62.01 63.65 63.22 62.56 62.92 62.79 61.54 61.22 59.95 59.70 60.08 59.62 60.16 60.48 61.02 62.03 63.41 63.65 62.96 62.22 61.46 60.94 60.83 60.81 60.38 59.38 59.12
32.60 27.26 20.86 19.59 19.97 22.08 32.84 29.95 33.76 36.51 40.21 41.11 42.47 43.67 44.77 45.55 45.62 45.91 46.40 52.76 56.48 61.23 62.70 63.71 62.71 61.37 61.63 61.30 60.98 60.83 60.16 60.62 60.13 59.80 59.38 59.40 59.63 60.38 61.16 61.78 61.29 60.98 61.14 61.19 61.09 60.72 60.79 60.14 59.48
29.42 28.14 21.15 19.70 20.36 22.34 32.90 27.76 33.18 40.66 43.37 43.78 44.16 43.84 44.25 44.36 44.58 45.39 47.88 55.33 60.43 61.79 63.08 62.41 62.00 60.52 60.59 60.91 60.24 60.50 60.52 60.38 59.65 59.65 59.87 59.73 60.22 60.87 61.43 61.54 61.31 61.08 61.36 61.12 61.36 61.34 61.04 60.18 60.41
30.79 25.98 32.45 25.30 26.66 22.50 27.01 32.14 37.95 41.55 42.42 42.70 42.68 43.54 43.81 44.18 44.53 52.65 58.23 60.17 61.14 61.88 61.64 61.49 60.49 59.80 59.80 59.74 59.89 59.64 59.92 60.03 59.62 59.70 60.06 59.84 60.35 60.91 61.08 61.07 60.62 61.27 61.81 62.25 61.97 61.87 61.50 60.91 59.96
33.42 34.51 25.05 22.63 19.69 19.46 25.20 27.94 30.77 36.86 38.42 41.77 42.48 42.67 43.89 44.78 53.49 57.92 59.23 60.05 60.39 60.25 60.44 59.90 60.15 59.61 59.69 59.82 60.23 59.92 59.85 60.06 59.64 59.97 59.49 59.79 60.20 60.65 60.53 60.92 61.47 61.74 62.03 62.31 61.98 61.69 61.98 60.69 59.94
31.80 28.09 28.89 26.48 24.54 21.57 21.78 26.13 36.04 37.71 39.41 40.03 41.93 47.33 48.09 48.15 55.65 58.00 59.35 60.60 59.30 59.86 59.30 59.36 59.39 59.45 59.51 60.18 60.00 59.90 59.61 59.77 59.56 59.48 59.57 59.80 59.55 60.56 60.63 61.27 61.79 61.73 61.58 61.58 61.65 61.03 61.40 60.41 58.82
33.33 30.84 30.75 24.96 24.15 26.70 24.11 25.68 38.47 38.68 39.43 41.49 44.20 49.24 53.53 53.08 57.25 58.36 58.95 60.23 59.17 58.75 58.99 59.24 59.56 59.65 59.68 60.22 59.99 59.57 59.64 59.21 59.14 59.31 59.82 59.66 59.89 60.81 61.18 61.91 62.07 62.05 61.57 60.76 61.10 60.49 60.95 58.64 58.56

GFSSGP_sfc_wetblb_042.txt.gz
Wetbulb
66.21 66.09 61.50 60.88 52.67 50.86 48.60 49.58 54.14 57.48 58.17 61.01 61.41 61.73 61.65 62.51 60.59 59.33 69.94 71.79 71.94 72.23 74.24 74.98 74.99 74.73 74.83 74.58 74.08 73.43 73.44 73.74 74.11 74.19 74.06 73.61 73.04 72.32 71.71 70.54 69.03 68.41 67.83 67.46 67.51 67.33 67.26 67.27 67.08
66.45 63.40 60.30 57.40 49.01 46.94 48.14 52.85 53.32 57.83 60.09 62.18 62.60 62.97 61.44 60.63 65.17 65.16 67.04 72.08 72.65 73.35 74.57 72.72 74.81 74.41 74.53 74.24 73.81 73.69 73.37 73.29 73.29 73.46 73.36 73.09 72.57 72.01 70.91 70.37 68.93 68.32 68.21 68.08 68.19 67.83 67.42 67.60 67.77
65.99 59.57 55.61 52.25 49.06 46.71 49.20 52.54 56.06 56.90 60.10 61.44 61.36 62.85 62.74 62.32 66.15 66.17 70.37 72.07 72.83 74.17 74.66 73.13 74.59 74.19 74.43 74.16 73.71 73.32 73.44 73.12 73.09 73.19 72.99 72.59 71.97 71.44 70.74 70.27 70.02 68.90 68.84 68.87 68.38 68.03 68.74 69.21 68.96
60.38 57.94 56.03 49.91 48.29 50.26 51.61 56.07 56.46 58.01 59.46 61.63 61.96 59.62 62.56 66.29 66.72 68.17 71.49 71.50 72.52 73.70 74.34 73.99 74.49 73.98 74.06 73.98 73.69 73.29 73.19 72.92 72.82 72.74 72.49 72.14 71.81 71.39 70.75 70.54 70.28 70.24 69.23 69.06 68.55 69.38 69.49 69.65 69.87
60.98 56.86 49.11 48.36 48.62 51.63 54.05 55.03 57.48 57.58 57.48 58.98 61.34 59.52 61.42 66.46 69.25 69.70 71.21 71.11 71.32 72.84 74.15 74.10 74.44 74.11 74.41 74.23 73.84 73.24 72.97 72.67 72.49 72.36 72.18 71.79 71.72 71.25 70.83 70.59 70.27 70.56 69.95 69.68 69.36 69.87 69.94 70.08 70.54
54.35 55.17 47.97 46.12 48.70 51.70 53.63 55.24 55.43 56.23 57.66 58.49 59.63 60.84 62.59 67.95 69.20 69.47 71.16 71.69 71.36 72.59 74.02 73.57 74.86 74.34 74.31 74.11 73.81 73.42 72.92 72.62 72.62 72.49 72.17 72.07 71.55 71.35 71.08 70.88 70.66 70.90 71.23 70.66 70.21 70.44 70.67 70.61 70.79
53.45 49.37 46.75 47.71 47.86 49.08 51.40 54.98 53.92 55.01 56.51 59.18 62.42 60.11 63.56 65.55 69.14 70.48 71.56 72.68 72.68 73.69 73.94 73.86 74.84 74.53 74.38 73.99 73.71 73.34 73.01 72.42 72.18 72.20 72.05 72.03 71.85 71.43 71.26 71.11 71.11 71.22 71.50 71.65 71.72 71.40 71.05 70.79 70.18
56.95 54.34 49.69 49.74 47.46 48.18 52.69 55.30 55.67 55.24 55.55 62.55 63.65 60.46 61.68 66.00 69.29 71.83 71.62 72.46 73.03 73.82 73.52 74.24 74.84 73.64 73.33 73.10 74.21 73.63 73.28 72.81 72.35 72.32 72.25 71.86 71.91 71.71 71.31 70.80 71.02 71.36 71.48 71.68 71.83 71.58 71.24 71.17 70.75
58.30 51.14 49.23 49.21 48.91 48.91 52.83 52.77 56.14 58.25 59.25 60.81 61.46 62.33 63.30 65.76 69.50 70.50 70.20 70.18 70.65 71.41 73.66 74.23 73.50 74.30 73.65 72.33 72.83 73.76 73.56 73.31 72.83 72.62 72.42 71.81 70.33 70.65 70.59 69.85 70.67 71.54 71.61 71.66 71.76 71.49 71.80 71.68 70.77
54.68 51.25 51.41 54.32 53.06 49.91 51.30 53.24 54.86 56.08 56.96 59.79 60.50 62.30 62.95 64.18 67.82 68.42 68.55 68.22 69.37 70.61 72.43 73.87 74.53 74.11 73.90 72.07 72.97 73.58 72.48 72.89 71.80 70.82 70.81 70.80 70.07 70.70 69.67 70.13 71.24 71.63 71.98 71.83 71.83 71.87 71.83 71.63 71.35
56.02 51.52 54.99 55.23 54.77 52.60 51.32 53.26 55.99 54.62 54.69 60.15 60.25 61.29 62.01 62.08 63.62 64.42 66.60 67.87 68.75 70.11 70.58 73.08 74.71 75.04 74.15 73.34 72.55 72.61 72.96 72.15 72.29 71.77 73.18 72.22 70.13 70.75 69.91 69.41 69.99 70.47 71.59 70.84 71.37 71.97 71.87 71.51 71.13
52.07 55.61 55.84 56.15 56.30 52.77 51.40 53.52 53.70 54.73 55.16 60.07 60.73 61.32 61.41 62.44 63.20 63.56 63.83 65.12 66.11 66.85 67.46 70.19 74.19 74.62 75.05 74.06 73.24 73.44 72.93 72.82 72.30 72.11 74.19 72.50 71.28 71.57 70.61 69.09 69.74 69.62 69.78 70.06 71.05 70.80 71.95 71.83 71.64
51.61 53.21 55.46 56.17 56.05 55.93 55.10 53.35 53.99 55.36 57.83 58.91 59.37 60.10 60.92 62.40 63.30 64.23 64.87 65.46 66.05 66.55 67.85 68.52 71.17 75.15 75.22 75.19 74.41 74.51 74.41 73.23 73.55 72.93 73.22 71.94 70.56 71.89 70.60 70.67 69.26 69.62 69.67 69.85 70.11 70.91 71.51 71.21 71.27
51.78 52.27 53.17 55.00 55.41 56.22 54.56 55.44 56.65 57.52 60.18 60.11 61.09 61.50 62.22 61.87 62.46 63.65 64.26 64.86 65.82 66.84 67.80 69.45 70.04 73.81 75.15 75.33 75.89 74.86 74.88 74.41 73.67 73.03 72.62 73.29 71.63 72.67 69.99 69.99 69.31 68.91 69.53 69.63 69.38 69.97 70.66 70.46 70.75
50.33 47.71 50.37 52.32 53.88 53.95 55.27 52.81 54.41 58.10 59.42 59.05 60.33 61.05 61.39 62.08 62.76 62.96 64.02 65.17 66.37 67.16 68.56 69.66 71.22 72.03 73.86 74.40 74.27 74.85 73.74 73.59 72.81 73.00 73.86 72.80 73.06 73.17 72.32 69.64 69.51 68.62 70.15 69.93 69.57 69.90 70.91 70.25 70.18
46.10 47.26 44.05 49.73 51.90 52.79 53.02 48.34 55.43 58.32 57.92 58.15 59.00 59.76 60.23 61.50 62.49 63.38 64.13 65.64 67.33 68.13 68.38 69.89 68.47 68.29 71.53 73.80 73.40 72.65 72.57 72.78 72.70 72.67 73.09 72.86 72.85 72.65 71.64 69.99 69.11 69.34 69.75 68.99 68.72 68.06 67.46 68.80 69.05
45.45 41.10 43.66 46.07 51.18 51.11 50.26 48.58 54.11 56.64 56.89 56.85 58.00 58.73 59.25 60.38 62.02 63.61 64.15 65.08 66.18 67.57 68.56 68.83 70.09 69.39 70.34 72.84 72.26 73.56 74.33 72.86 72.78 72.91 72.68 72.92 72.54 72.36 71.47 70.43 69.52 71.35 68.36 68.23 67.45 66.89 67.91 67.97 70.30
39.89 41.95 43.42 43.53 48.36 50.03 49.03 48.61 52.26 54.66 55.57 55.88 56.92 57.88 58.50 59.28 60.42 62.49 63.37 64.38 65.45 66.63 68.65 69.59 70.16 73.08 71.46 70.11 71.68 71.64 72.27 72.75 72.67 72.36 72.62 72.97 72.34 72.06 71.50 70.89 70.80 70.05 68.36 67.21 67.09 67.63 68.45 69.91 68.98
42.47 42.36 42.77 45.81 48.46 47.59 47.95 48.56 50.69 53.54 54.10 54.58 55.66 56.58 57.64 58.43 60.32 61.77 62.56 63.66 64.47 66.02 69.07 70.51 70.47 73.05 70.29 68.26 69.06 70.00 70.03 71.71 72.08 72.67 73.04 72.75 72.37 72.06 71.22 71.27 70.05 70.03 67.80 67.69 68.07 68.00 69.56 68.74 68.61
41.14 40.19 41.25 45.26 46.90 47.33 47.12 47.24 50.50 52.21 53.12 54.43 55.14 55.97 56.98 58.01 58.96 60.06 61.53 62.76 63.91 66.39 68.23 70.56 71.22 72.28 70.52 68.71 70.66 70.82 71.50 71.75 72.27 72.30 72.44 72.41 71.97 71.71 70.17 71.46 70.26 70.04 68.25 68.24 68.47 69.95 67.69 67.52 68.09
39.33 38.65 39.93 40.92 45.09 47.20 46.10 44.79 47.60 51.30 53.19 54.09 54.92 55.86 56.47 56.85 57.22 58.54 59.67 61.53 62.74 64.87 67.99 68.95 70.35 70.78 70.96 71.18 71.17 72.07 72.55 71.54 69.08 70.20 70.91 70.97 71.08 70.28 70.30 71.05 71.10 70.37 69.28 67.98 69.80 69.58 68.87 65.67 67.06
36.24 41.40 40.87 40.73 40.90 37.54 46.00 37.10 45.47 48.65 49.75 51.61 53.06 54.45 55.31 56.38 57.27 57.90 58.96 60.11 62.03 62.87 64.52 67.74 69.82 69.17 69.64 71.44 72.69 73.03 70.25 68.69 69.45 71.06 70.20 69.38 70.08 70.47 72.04 72.20 71.40 70.75 69.80 70.60 70.01 69.57 68.90 68.01 64.79
38.55 41.89 40.40 41.29 39.81 40.68 40.95 38.98 43.46 48.22 47.07 49.70 52.33 53.56 54.86 55.79 56.64 57.14 57.89 59.12 60.29 61.63 62.52 66.06 67.66 68.04 70.00 71.43 72.54 71.27 71.93 71.32 71.77 71.67 69.22 69.78 70.55 70.95 71.91 71.97 71.67 71.32 70.86 70.88 69.74 69.77 69.59 68.06 66.20
42.92 40.06 40.21 40.43 39.55 33.81 39.59 39.81 40.77 44.18 46.87 49.20 51.72 52.97 54.02 54.73 55.50 56.83 58.63 59.54 59.94 61.19 62.50 63.99 65.81 69.20 70.75 71.72 72.08 72.51 72.33 72.11 71.39 71.36 69.30 69.88 70.62 71.56 72.03 71.65 71.75 71.70 70.98 70.89 70.36 69.90 69.01 68.07 66.14
40.73 36.77 30.38 29.57 30.88 30.38 40.29 38.42 41.10 47.02 48.64 49.42 50.21 51.34 53.73 55.66 56.31 56.89 58.02 58.73 60.29 61.66 63.67 66.95 68.97 70.21 71.12 71.37 71.59 72.30 72.87 72.74 72.49 71.95 71.45 70.93 70.28 70.38 71.39 71.83 71.32 70.55 71.05 70.22 70.04 69.25 68.13 67.07 65.77
38.08 36.45 31.27 24.31 28.92 32.46 38.87 35.14 40.61 47.72 49.76 50.81 51.35 53.05 53.90 55.79 58.43 59.47 60.71 60.42 60.12 61.40 65.71 68.24 69.60 70.36 71.20 71.61 72.11 72.93 73.21 72.64 72.62 72.84 71.75 71.14 70.22 69.88 71.63 71.37 71.37 70.64 69.97 69.46 69.38 68.12 66.90 67.50 66.75
37.90 33.47 40.42 33.22 34.45 32.76 37.17 40.12 44.33 47.29 48.23 49.62 50.82 51.62 54.70 57.28 60.03 62.51 63.34 63.63 63.88 65.51 67.82 69.38 70.65 70.96 71.38 71.94 72.13 72.58 73.09 72.93 72.07 72.18 71.89 69.69 70.69 70.16 70.83 70.74 70.32 69.92 69.27 68.85 68.68 66.72 67.06 67.09 67.44
40.50 41.71 33.44 34.89 25.34 26.49 35.23 37.01 38.24 43.91 45.58 47.94 50.22 51.43 53.51 57.09 61.21 62.99 63.51 64.96 66.17 67.24 69.06 70.90 71.24 71.13 71.42 71.56 71.75 71.47 71.48 71.54 71.42 70.86 69.86 70.06 70.42 70.25 70.17 69.81 69.46 68.36 68.10 68.12 68.14 67.70 67.68 67.33 67.44
38.22 36.93 36.87 35.67 35.34 28.25 31.70 36.57 45.88 46.66 48.73 49.11 50.06 51.89 53.80 58.69 62.26 63.23 63.87 63.78 65.34 69.32 70.25 70.81 71.01 70.75 70.84 70.95 70.98 70.88 70.44 70.11 69.88 69.77 69.85 70.20 70.07 69.58 68.43 67.67 67.30 67.25 67.47 68.09 67.93 67.80 66.69 66.36 64.86
39.69 36.25 34.63 31.84 30.42 35.93 33.75 37.08 48.85 49.44 49.73 49.89 50.48 51.68 53.89 58.52 62.10 61.29 62.05 64.24 68.11 69.10 69.82 70.16 70.49 70.25 70.45 70.45 69.92 69.32 69.31 69.61 69.47 69.28 69.47 69.63 68.23 67.72 67.11 66.99 66.83 66.92 66.88 67.61 66.99 65.28 65.55 64.76 61.80

GFSSGP_sfc_wetblb_045.txt.gz
Wetbulb
67.49 65.34 63.95 59.95 53.10 51.91 49.90 50.61 55.72 55.24 56.31 60.16 61.96 60.38 60.76 62.54 60.61 58.93 71.51 69.36 70.00 71.60 76.20 74.38 75.56 75.56 75.25 74.47 74.60 75.60 76.04 76.09 76.40 76.63 76.25 75.48 74.91 73.95 72.94 72.16 70.44 69.76 69.13 68.34 67.65 67.21 67.28 67.50 67.18
63.13 63.11 60.48 57.25 50.19 48.45 49.14 53.66 53.07 57.78 60.78 63.32 63.54 62.88 62.60 61.77 65.42 66.64 68.71 69.70 70.53 72.97 75.43 72.58 75.53 75.18 75.46 74.63 74.05 74.23 75.05 75.40 75.70 75.83 75.28 74.68 74.01 73.30 72.05 71.09 69.94 69.33 68.54 68.11 68.04 67.99 67.89 67.68 67.53
68.38 63.55 55.11 52.41 51.12 47.74 50.01 53.93 55.70 58.81 61.20 61.98 61.97 63.98 63.07 62.81 66.20 66.65 69.89 70.65 71.37 73.58 75.02 74.15 75.28 74.93 75.31 74.83 74.15 73.76 73.96 74.31 74.58 74.41 74.11 73.68 73.21 72.91 72.08 70.93 70.11 69.08 68.73 68.54 68.69 68.28 68.10 68.60 69.03
63.68 58.90 55.66 50.67 48.84 52.07 52.45 55.60 57.28 59.26 61.11 62.71 63.14 60.25 64.10 67.46 67.40 69.06 70.44 70.22 70.96 72.89 74.44 75.35 74.81 74.73 74.88 74.93 74.26 74.11 73.78 73.61 73.81 73.66 73.51 73.23 72.50 72.44 71.67 70.94 70.56 69.84 69.24 69.40 69.08 68.59 69.46 69.69 69.66
62.09 57.46 50.44 49.15 49.75 52.84 54.79 56.13 59.12 58.40 60.72 61.96 63.14 60.95 62.24 66.37 68.72 70.17 69.81 69.69 70.85 71.86 73.87 75.80 74.73 74.63 74.78 74.73 74.28 74.18 73.96 73.54 73.56 73.66 73.38 72.78 72.44 71.99 71.47 70.95 70.42 70.20 70.35 69.76 69.41 69.70 69.94 69.94 70.29
55.87 54.25 48.28 47.51 49.26 52.86 54.84 56.76 56.45 58.10 60.95 61.36 61.38 61.84 63.36 67.69 68.33 69.06 68.97 69.56 70.32 71.66 73.97 76.19 74.78 74.58 74.31 74.26 73.98 73.61 73.34 73.29 73.09 73.19 72.91 72.61 72.21 71.92 71.62 71.14 70.97 70.97 71.32 71.23 70.34 70.55 70.36 70.35 70.78
55.30 52.57 48.32 47.61 49.64 52.00 54.22 57.12 55.25 56.61 58.75 59.91 62.10 59.92 63.83 65.75 68.38 68.72 68.16 69.50 69.71 72.09 73.37 76.68 75.87 74.36 74.36 74.13 73.89 73.41 73.04 73.01 72.89 72.59 72.30 72.10 72.02 72.00 71.75 71.40 71.25 71.33 71.78 71.95 71.87 71.58 71.21 71.00 70.90
57.98 55.90 51.49 51.09 48.19 48.04 53.49 55.18 56.13 55.52 56.37 61.52 63.28 60.05 61.20 66.20 68.66 68.65 68.85 69.53 69.84 71.49 72.64 73.56 76.74 74.35 72.75 72.88 74.26 73.76 73.34 73.04 72.81 72.67 72.69 72.32 72.25 72.15 71.83 70.97 71.31 71.65 71.82 72.14 72.22 72.19 72.00 71.43 71.09
60.52 53.01 50.48 51.59 51.37 51.73 54.83 53.73 55.94 59.15 58.04 59.30 62.11 62.93 64.57 67.62 69.78 68.41 68.11 68.55 69.05 70.00 72.19 73.60 73.94 74.79 73.61 72.40 72.92 73.74 73.61 73.51 73.03 72.92 72.82 71.95 70.05 70.38 70.05 69.71 70.52 71.68 71.88 72.03 72.20 72.17 72.20 72.10 71.56
56.69 53.08 52.35 55.08 54.91 53.32 54.28 54.52 55.17 55.44 56.40 58.13 61.75 63.90 64.19 66.34 67.35 67.39 66.56 66.89 67.75 69.04 71.07 73.09 74.53 74.89 74.71 72.39 73.87 73.99 72.36 72.35 71.46 70.64 71.42 70.80 70.06 69.76 68.97 69.84 70.52 71.70 71.93 72.10 72.20 72.27 71.80 71.75 70.76
55.79 53.08 55.96 56.07 56.68 56.66 54.98 54.04 56.06 54.84 54.75 58.52 59.86 62.74 63.85 64.04 66.50 67.32 66.96 67.44 67.80 69.03 70.23 72.01 76.40 76.60 75.36 74.09 72.80 72.96 73.53 72.88 73.24 73.10 72.92 72.46 69.91 70.23 70.00 69.79 69.52 70.06 71.08 69.61 70.98 71.26 71.21 70.82 70.83
52.83 55.10 56.19 57.08 57.46 57.37 55.13 55.08 54.03 55.39 56.61 59.05 61.12 63.86 63.56 63.18 64.32 66.28 67.29 67.65 68.38 69.45 70.33 70.53 74.57 77.33 78.25 75.40 73.93 73.68 73.43 74.26 73.72 73.40 74.52 72.17 71.82 71.85 71.69 70.20 69.75 71.14 69.94 70.09 70.64 69.70 71.54 71.24 71.61
51.36 53.85 55.42 56.37 57.03 57.56 58.08 55.47 54.41 55.18 57.88 59.42 59.33 62.18 62.96 63.26 63.95 65.61 66.31 66.86 67.52 67.68 68.54 69.42 71.35 77.48 78.41 78.10 74.92 75.20 75.13 74.05 74.63 74.59 75.37 73.93 72.07 71.87 71.01 72.03 70.44 70.96 69.66 70.00 70.27 70.72 71.62 72.19 71.28
51.65 52.26 52.72 54.28 55.11 56.09 55.77 56.03 56.52 57.44 59.01 58.67 58.92 58.59 60.62 62.26 63.03 65.13 65.88 66.22 67.29 68.07 68.49 69.54 70.49 77.91 77.31 77.30 78.31 77.72 77.44 74.68 74.52 74.00 75.48 75.49 73.59 73.45 71.74 71.97 70.79 70.49 70.34 69.98 70.30 70.31 70.27 71.26 71.45
51.25 48.45 50.14 51.76 53.52 53.21 56.03 53.02 54.00 58.34 59.22 58.88 59.19 59.97 60.93 62.44 64.13 64.54 65.24 66.41 67.20 68.07 69.67 70.66 72.71 74.15 78.15 78.26 77.93 76.94 74.22 74.49 73.66 74.02 77.53 77.03 75.40 74.58 73.76 72.10 70.96 71.07 71.40 73.25 72.05 72.61 71.21 70.22 71.04
47.30 48.61 44.96 49.82 51.31 52.76 52.17 48.45 54.91 57.98 58.46 58.39 59.42 60.23 60.93 62.36 63.30 64.30 65.05 66.33 68.88 70.05 71.19 72.92 69.28 70.98 76.77 76.85 75.86 74.38 72.88 73.74 73.32 73.64 74.85 76.78 76.71 75.48 74.91 71.40 71.52 72.11 71.21 70.41 69.44 68.71 68.63 69.76 69.00
44.05 41.61 44.70 46.33 50.91 50.55 49.73 48.92 53.75 56.74 57.61 57.77 59.21 60.04 60.60 61.60 63.12 65.56 65.19 66.07 68.11 69.98 71.50 70.65 73.05 70.50 74.07 76.17 73.86 73.95 75.74 73.09 72.55 73.55 73.56 76.45 75.42 74.69 74.29 72.00 72.09 74.03 70.81 70.22 69.29 68.88 68.94 67.94 68.05
40.13 41.36 43.42 44.09 48.34 49.74 48.50 49.34 52.45 54.77 55.62 56.90 57.89 59.03 59.77 60.71 61.98 63.91 65.16 66.00 67.74 69.73 72.16 73.53 72.18 74.05 76.05 72.99 74.70 71.15 71.19 72.16 73.27 73.30 73.45 76.04 74.35 73.96 73.67 72.35 73.52 72.93 70.12 69.52 69.66 69.86 68.55 67.71 67.85
43.83 42.25 41.61 45.06 48.59 48.29 47.70 48.76 51.06 53.55 54.11 54.36 56.53 58.14 59.84 60.58 62.06 63.37 64.42 65.31 65.65 69.81 71.08 72.39 71.86 73.91 72.16 68.75 68.22 68.21 69.11 71.36 72.75 73.50 75.26 74.79 74.10 73.65 73.84 71.83 73.02 72.53 70.46 70.89 71.97 69.08 68.83 66.98 69.95
42.43 40.75 41.18 44.25 46.45 47.31 47.91 47.52 50.40 52.39 53.70 54.69 55.44 56.65 58.11 59.45 60.49 61.85 63.73 65.00 67.34 68.74 70.44 71.23 72.37 73.22 74.03 70.28 71.44 69.83 71.96 71.14 72.43 73.41 75.08 74.48 73.72 73.94 73.17 73.64 73.15 72.63 70.42 71.70 71.14 70.38 66.42 67.93 69.92
41.56 40.20 40.35 40.75 44.63 46.81 46.31 45.06 47.67 51.51 53.05 54.18 55.61 56.63 57.69 58.53 59.30 60.82 61.58 65.01 65.63 67.41 69.50 70.00 71.83 73.35 74.61 73.94 72.43 73.60 73.12 73.50 72.19 73.37 73.16 73.02 73.07 73.37 72.66 72.45 73.18 72.18 71.96 68.73 70.50 70.08 70.12 69.15 68.43
38.33 43.66 42.28 40.93 39.97 36.62 45.19 38.12 45.92 49.08 50.43 52.69 54.25 55.79 56.63 57.81 58.97 59.90 61.74 63.56 65.38 65.42 66.41 69.49 71.33 73.15 73.93 75.55 71.42 73.95 71.01 70.29 71.86 72.13 72.41 72.05 72.38 71.63 71.40 71.69 71.93 71.59 70.99 71.31 70.08 70.44 70.86 70.52 65.69
40.64 43.80 42.25 41.88 39.75 39.46 40.03 38.85 43.26 48.49 48.16 50.43 53.13 54.58 55.85 57.09 57.83 58.23 59.37 61.14 61.77 64.23 66.01 68.57 70.45 72.23 73.10 73.81 73.18 71.09 72.78 71.73 71.78 71.95 72.52 70.92 71.29 70.91 71.41 71.62 71.92 72.02 71.18 73.22 72.69 71.50 70.63 68.49 67.80
44.75 42.28 42.23 41.56 39.54 33.30 38.40 38.90 40.27 44.44 47.50 50.30 52.93 54.37 55.56 56.50 57.59 58.53 59.59 60.27 60.66 61.66 62.58 66.89 69.50 71.42 72.68 72.99 74.34 75.27 74.94 74.96 71.85 72.44 69.45 69.12 70.03 71.18 71.23 72.08 72.41 72.89 72.98 72.57 70.75 70.98 69.70 70.70 68.64
43.07 38.66 31.46 29.83 31.79 31.20 39.94 37.80 41.20 47.12 49.73 51.02 51.58 53.38 55.23 56.25 56.63 57.29 57.96 58.37 60.21 61.53 62.52 63.77 66.50 68.08 70.89 71.72 72.59 73.63 75.88 77.19 75.94 71.30 70.07 70.10 70.42 70.64 70.89 72.94 72.05 71.55 72.37 71.41 70.82 70.07 69.64 68.95 67.31
39.23 39.53 31.91 24.14 27.63 31.36 39.62 35.34 39.69 48.77 51.20 52.49 52.75 53.30 54.69 55.38 56.61 57.50 58.82 59.83 61.11 62.06 62.92 64.67 66.96 69.14 71.09 71.59 72.26 73.98 75.28 73.00 73.54 73.23 72.42 71.47 71.59 71.86 73.88 72.97 72.02 71.10 70.51 70.66 70.39 69.32 68.44 69.60 66.79
40.18 37.85 41.38 33.17 35.58 30.63 34.66 39.37 45.31 47.22 49.01 50.69 51.68 53.21 54.09 56.46 58.47 59.98 61.96 63.02 63.83 62.69 63.86 66.52 68.89 70.41 71.48 71.95 72.96 73.63 73.77 75.45 73.65 76.02 75.51 72.43 72.69 71.55 71.88 71.62 71.02 70.64 70.33 69.84 69.90 68.16 67.84 68.39 68.65
42.40 43.48 34.14 35.97 26.98 25.61 33.62 37.06 38.13 43.38 45.64 49.56 50.98 52.46 54.32 56.04 58.51 61.59 63.00 63.76 65.85 65.37 67.72 69.73 71.32 71.44 72.00 72.94 73.21 73.30 74.36 74.85 73.92 73.94 73.97 73.72 73.25 71.22 70.38 70.02 70.38 69.73 69.49 69.35 69.42 68.95 69.39 67.93 69.03
39.58 38.52 37.92 38.04 35.25 29.08 27.75 34.46 44.79 46.45 47.10 48.92 51.19 53.02 54.04 57.75 61.76 63.89 65.72 66.86 67.81 68.21 68.84 70.49 71.30 71.69 71.74 72.51 73.23 72.64 71.80 72.17 72.37 71.36 70.73 70.71 70.97 70.24 69.32 69.49 69.20 68.30 67.88 68.17 69.21 67.89 67.38 66.45 66.84
43.08 40.23 38.81 31.36 29.82 36.12 34.28 34.26 47.01 46.10 51.45 50.42 52.39 52.58 54.53 55.94 62.94 63.97 63.39 65.55 67.53 68.82 70.11 70.49 71.25 71.21 71.88 71.73 71.20 70.91 71.42 70.84 70.90 70.23 70.36 70.39 69.61 69.46 68.64 67.87 67.14 66.80 67.07 67.98 67.17 66.31 66.47 65.75 65.01

GFSSGP_sfc_wetblb_048.txt.gz
Wetbulb
66.28 62.94 64.19 59.16 50.76 50.47 47.42 49.16 53.52 53.35 54.76 57.76 59.08 59.25 58.82 60.99 61.35 58.25 68.36 69.27 75.00 72.62 72.78 74.16 75.52 75.32 74.94 75.22 76.31 76.70 76.87 76.95 76.88 76.96 76.64 76.26 75.71 74.92 74.24 73.24 72.14 70.53 69.14 68.54 67.58 66.80 66.71 66.66 66.74
61.98 61.58 60.88 55.53 48.67 45.65 47.74 51.89 51.87 54.09 58.19 60.45 61.65 60.85 60.88 60.33 66.29 67.32 66.54 69.39 75.37 73.44 72.07 72.84 75.52 75.14 75.01 74.77 75.61 76.27 76.37 76.55 76.85 76.73 76.19 75.61 75.11 74.62 73.59 72.46 71.21 69.78 68.98 67.91 67.12 67.32 67.15 67.25 67.03
64.91 63.61 56.17 50.80 48.56 46.22 47.65 53.13 53.51 56.24 61.98 61.81 60.99 63.51 62.97 62.58 66.71 67.51 68.57 69.70 75.86 74.54 71.52 73.55 75.44 75.27 75.09 74.52 74.74 75.50 75.79 75.86 76.32 76.18 75.86 75.24 74.57 73.92 73.02 72.05 71.49 69.70 68.77 68.20 68.00 67.86 67.92 67.54 68.21
63.86 61.41 55.86 48.14 46.95 50.32 51.58 53.73 55.56 56.46 60.37 62.12 62.37 60.62 64.73 68.12 67.52 68.57 69.29 69.14 72.98 73.25 72.51 74.74 75.27 75.27 75.04 74.57 74.24 74.47 75.10 75.32 75.40 75.54 75.31 74.86 74.17 73.35 72.61 71.90 71.43 71.02 69.48 69.09 68.96 69.48 69.02 69.31 69.44
63.47 57.12 48.90 46.98 47.55 51.18 53.77 55.52 55.78 56.45 59.12 59.75 61.58 60.72 62.11 66.78 69.61 69.14 69.47 69.25 70.75 72.82 73.30 74.05 74.92 75.17 75.27 74.89 74.34 73.87 74.00 74.31 74.51 74.86 74.57 74.17 73.50 73.10 72.38 71.63 71.39 71.05 71.19 70.34 69.94 70.45 70.86 70.67 70.31
55.22 55.12 47.67 45.94 48.03 51.32 53.78 55.44 55.58 56.53 58.92 60.95 61.02 61.39 62.68 67.55 67.65 68.41 69.24 69.52 70.50 71.74 73.97 74.43 74.79 74.89 74.59 74.57 74.32 73.72 73.45 73.45 73.69 73.85 73.75 73.45 73.03 72.68 72.16 71.66 71.30 71.26 71.36 71.57 71.34 71.10 71.45 71.31 71.19
55.86 52.18 46.76 46.67 46.87 49.27 52.05 55.74 53.95 54.81 55.73 58.27 62.21 59.76 63.62 65.39 67.52 69.50 68.24 69.75 70.39 72.70 75.38 74.38 73.27 74.13 74.67 74.34 74.14 73.81 73.47 73.36 73.27 73.24 73.22 72.95 72.80 72.28 72.09 71.47 71.36 71.45 71.52 71.49 71.51 71.36 71.68 71.59 71.57
57.36 54.23 49.81 50.48 49.02 48.67 52.99 53.85 55.26 54.89 54.67 60.24 62.44 58.25 60.21 66.66 68.77 68.39 67.43 67.88 69.10 71.64 75.23 74.88 74.16 72.61 72.28 72.80 74.17 73.69 73.37 73.44 73.09 72.94 72.85 72.65 72.43 72.21 72.09 71.10 71.27 71.54 71.73 71.91 71.93 71.81 71.86 72.06 71.86
58.54 51.67 49.09 50.21 50.60 52.10 55.55 53.72 56.04 56.91 55.17 56.55 58.93 60.24 64.25 67.63 67.65 66.43 65.54 66.39 67.32 69.98 74.13 75.72 74.82 73.40 71.55 71.23 72.55 73.96 73.47 73.20 73.11 72.87 72.75 71.90 69.91 69.56 69.60 70.48 70.23 71.69 71.84 72.26 72.16 72.23 72.16 72.23 72.13
53.50 50.70 51.35 54.72 54.85 53.82 55.12 55.12 55.37 54.79 54.57 55.82 57.71 61.36 64.63 66.49 66.81 65.42 64.91 65.58 66.59 68.61 70.42 72.36 74.89 73.48 71.66 70.67 71.40 72.39 72.32 71.97 71.62 70.89 70.57 70.95 69.23 68.34 68.85 69.64 70.55 71.24 71.86 72.11 72.21 72.18 72.48 71.67 69.75
52.85 50.48 54.56 55.38 56.46 56.64 55.08 55.28 56.87 54.02 52.69 55.20 57.20 59.99 63.79 64.30 66.69 66.61 65.33 66.34 67.00 68.42 69.64 72.12 75.51 74.35 73.01 71.95 72.19 72.36 71.38 71.05 70.75 70.45 69.72 70.36 69.06 68.16 68.42 67.48 68.39 69.04 70.78 69.23 70.41 70.48 70.39 69.23 69.05
49.52 53.16 54.67 55.85 57.24 56.68 55.61 57.24 55.44 55.53 54.99 57.55 58.37 61.22 63.21 63.71 64.71 65.60 66.36 66.69 67.06 68.04 69.93 72.55 75.88 76.13 75.67 74.44 72.74 73.53 73.00 72.13 70.89 70.57 70.00 69.10 68.93 68.13 67.19 67.28 68.21 66.79 67.73 67.83 67.57 67.85 68.97 68.87 69.56
47.95 50.48 53.40 55.06 55.59 55.96 56.67 55.80 56.11 55.78 57.82 58.76 58.68 59.45 60.24 63.86 64.45 66.24 67.91 68.88 67.22 65.62 67.96 70.84 75.85 76.41 77.40 77.79 76.59 73.84 73.14 73.32 72.14 71.71 71.00 69.85 69.52 68.36 68.37 68.56 68.13 67.96 67.54 68.08 66.81 68.14 68.03 68.64 69.26
50.16 49.96 50.12 51.58 52.85 55.28 54.12 54.48 56.36 57.64 59.67 58.65 58.52 58.53 59.32 63.19 63.84 64.85 66.44 68.42 71.66 74.88 73.60 73.85 75.25 77.24 77.25 76.50 76.69 77.67 76.04 74.07 73.83 73.08 72.74 71.36 69.88 70.16 69.13 68.56 69.54 68.96 68.37 68.42 67.51 67.53 68.44 69.07 69.61
49.76 47.08 49.29 50.05 50.65 50.98 52.92 50.54 52.26 57.07 58.89 58.43 58.80 59.08 59.29 60.30 63.45 63.69 65.16 68.85 70.39 71.57 76.17 73.38 75.40 77.73 77.00 76.64 76.73 76.60 76.29 75.70 74.02 74.21 75.71 72.97 71.92 70.37 70.47 69.77 67.89 69.13 70.09 68.55 68.88 68.15 68.62 69.57 70.07
44.21 45.51 42.70 48.48 49.74 50.87 50.06 45.55 52.53 55.46 56.61 56.99 58.26 59.29 60.07 60.33 61.54 62.87 65.57 69.62 71.20 71.44 71.92 72.99 69.89 75.85 77.05 76.65 76.16 75.84 75.07 74.21 74.17 74.27 74.21 75.61 72.93 72.50 72.07 70.35 70.26 69.67 69.75 69.38 68.88 69.14 68.23 67.85 68.45
42.90 38.07 40.80 43.73 49.53 49.45 48.88 46.44 52.36 55.11 54.89 55.45 57.51 58.79 59.70 60.74 62.49 64.27 65.26 66.89 70.91 70.74 71.86 73.05 73.52 71.93 75.88 76.57 75.62 75.15 73.67 73.08 73.56 73.63 74.02 75.90 74.47 73.05 72.53 71.55 70.86 71.58 69.96 68.76 68.64 68.42 67.48 67.24 67.95
39.13 40.08 41.42 41.06 45.10 46.88 47.07 47.71 51.13 52.95 52.78 54.38 55.73 57.57 59.38 59.86 61.55 64.26 65.66 66.74 68.70 70.84 72.09 70.94 71.74 73.03 75.30 74.76 74.86 72.84 72.22 72.09 72.36 72.80 74.19 75.20 74.65 74.05 72.37 72.67 71.23 72.97 69.53 69.17 68.61 67.56 68.28 67.29 67.38
43.85 42.00 41.28 43.94 46.43 45.12 45.01 46.88 49.63 52.89 52.73 52.31 54.11 56.06 57.94 59.57 62.28 64.29 65.05 66.61 66.69 70.72 71.11 71.79 71.87 73.30 73.88 73.59 70.54 69.29 68.94 69.72 70.94 72.75 74.77 75.31 74.64 73.79 73.24 71.57 72.37 71.22 70.08 69.04 70.06 69.23 68.21 66.43 66.43
42.35 40.58 40.21 43.15 45.27 44.54 44.23 44.11 48.04 51.17 51.93 53.92 54.03 54.40 56.18 58.37 61.36 61.56 62.87 67.78 69.18 70.67 70.63 71.38 71.36 72.57 73.56 71.25 70.34 69.80 69.75 69.65 70.64 72.96 74.60 75.18 74.69 73.82 73.17 71.84 71.23 70.95 70.28 70.42 70.38 68.64 66.26 66.04 66.85
41.16 39.67 39.86 39.88 43.17 44.19 42.64 41.62 45.49 48.78 51.66 53.40 54.45 56.01 56.95 56.82 57.73 60.97 63.42 66.02 68.13 69.21 69.45 70.65 70.95 70.21 70.98 70.23 70.86 71.71 71.33 72.08 72.28 73.96 74.37 74.34 74.15 73.66 73.02 71.72 71.29 71.27 70.73 69.07 69.79 68.34 66.97 64.54 67.34
37.57 42.59 41.83 40.82 39.55 35.29 42.88 34.44 42.89 46.32 48.32 51.42 52.64 53.98 55.89 57.19 59.03 59.96 62.17 65.10 67.27 68.28 69.67 70.59 70.92 70.40 70.58 72.32 70.84 70.23 68.02 67.66 70.02 73.32 73.86 73.44 73.95 73.05 72.38 71.67 71.79 71.11 70.09 70.02 68.49 68.95 67.25 67.94 64.68
40.22 43.85 42.03 41.44 39.69 38.51 38.57 35.99 39.70 44.73 44.81 48.67 52.29 53.77 55.26 57.57 58.49 58.78 59.98 62.04 63.44 63.89 65.20 66.61 68.79 70.72 70.53 70.55 70.75 69.36 70.68 70.89 74.72 74.03 73.58 73.25 72.81 71.34 71.37 71.20 71.43 70.19 70.02 70.62 68.62 68.11 68.61 68.19 65.99
44.89 41.74 41.12 41.13 39.35 32.28 37.14 36.73 37.57 41.10 44.51 47.13 51.46 53.88 55.22 56.46 57.18 58.32 59.87 60.87 61.18 63.20 63.83 65.61 66.65 67.48 70.42 71.26 71.78 71.29 71.07 70.27 71.54 71.14 71.38 70.37 69.96 69.59 70.09 70.43 70.84 70.24 70.65 70.77 69.92 70.00 68.67 67.88 67.08
42.09 38.27 30.58 29.79 30.60 30.54 38.70 36.15 39.25 44.24 46.30 48.12 49.48 52.54 54.84 56.72 57.20 58.33 58.84 59.36 61.15 62.00 62.76 65.76 68.87 68.64 70.50 70.67 71.63 70.56 69.76 71.91 74.24 71.96 70.38 69.15 68.22 68.47 70.08 70.58 69.94 70.74 71.62 70.86 69.75 69.47 68.65 68.14 66.99
39.62 38.25 30.25 23.89 26.59 30.64 38.11 32.69 38.46 46.11 48.63 49.81 50.83 53.26 54.39 55.45 56.39 57.52 59.01 60.41 59.93 61.52 63.39 64.15 67.04 67.63 69.91 69.81 69.72 71.88 71.39 72.26 73.34 71.39 69.84 68.91 69.07 69.70 70.53 71.19 70.60 71.49 70.80 70.14 69.89 69.18 68.44 67.84 66.74
38.96 35.66 40.21 32.32 33.69 31.68 34.69 37.70 42.51 45.46 46.89 48.75 49.70 51.60 54.23 55.63 56.95 58.68 59.84 63.64 64.70 64.86 68.10 65.58 67.53 67.54 68.36 68.69 71.23 71.91 73.22 74.18 72.53 72.58 71.08 70.49 71.07 71.36 70.80 71.62 70.41 70.66 70.53 69.63 69.28 68.24 67.67 67.42 66.87
41.36 43.59 34.93 36.19 24.63 23.96 31.70 33.35 35.30 42.24 44.92 47.61 48.79 51.83 53.71 55.92 56.87 58.06 59.12 61.72 64.43 65.31 67.81 68.35 70.02 69.90 71.59 71.85 72.48 72.78 73.74 74.61 73.47 73.03 71.64 71.76 72.31 71.49 71.44 70.56 70.26 70.33 69.38 68.99 68.34 67.51 67.31 66.52 66.44
38.68 38.01 38.67 35.49 33.94 27.22 26.46 31.81 43.30 42.85 43.86 43.54 46.23 51.47 54.35 54.95 56.31 59.97 62.58 66.64 67.27 68.07 66.45 69.87 70.42 71.29 71.14 71.93 72.34 72.68 73.09 73.78 73.29 72.16 70.58 71.17 71.39 70.57 70.05 69.61 69.25 68.80 68.46 68.18 67.51 66.86 66.42 65.21 65.01
40.64 38.85 37.49 32.78 30.48 34.48 32.91 33.44 45.20 43.00 43.55 44.98 43.36 51.46 54.15 55.59 56.37 62.73 63.79 65.06 66.29 67.75 68.00 69.09 70.88 70.68 71.80 71.05 71.39 71.02 71.05 70.97 70.94 70.47 70.42 70.48 69.69 69.36 68.94 69.06 67.90 67.72 67.22 66.90 66.67 65.47 65.65 64.67 63.95